GEFSMW_prec_meanprecacc_174.txt.gz
Total_Precipitation_Accumulation
1.85 2.15 2.53 2.88 3.09 3.25 3.35 3.65 3.85 3.55 3.05 2.61 2.09 1.84 1.71 1.50 1.30 1.16 1.04 1.05 0.96 1.02 1.04 0.87 1.03 0.89 0.90 0.93 0.97 1.09 1.13 1.04 1.01 1.37 1.58 1.33 1.06 1.01 0.90 0.88 1.00 1.06 1.08
1.38 1.48 1.70 2.03 2.12 2.33 2.65 3.01 3.25 3.09 2.55 2.29 2.03 1.85 1.73 1.57 1.48 1.36 1.20 1.03 0.98 0.99 0.88 1.03 0.90 0.91 1.00 1.03 1.03 1.12 1.15 1.02 0.98 1.30 1.60 1.43 1.45 1.34 0.76 0.83 0.91 0.98 1.15
1.02 1.01 1.10 1.27 1.57 2.05 2.19 2.25 2.50 2.69 2.43 2.28 2.19 2.06 1.91 1.67 1.63 1.55 1.35 1.04 0.93 0.94 0.95 0.93 0.89 1.04 0.86 1.04 1.17 1.16 1.20 1.16 1.04 1.06 1.29 1.32 1.33 1.22 1.02 0.85 0.79 0.90 1.12
0.69 0.83 0.85 0.90 1.10 1.43 1.71 1.96 2.20 2.36 2.28 2.16 1.95 1.78 1.57 1.43 1.38 1.38 1.37 1.23 1.10 0.98 0.96 0.89 0.95 1.03 0.89 1.16 0.93 0.98 1.16 1.21 1.06 0.98 0.85 0.87 1.04 1.16 1.18 1.02 0.84 0.86 0.96
0.38 0.55 0.67 0.75 0.79 0.98 1.37 1.79 2.11 2.34 2.23 1.93 1.75 1.72 1.61 1.54 1.46 1.37 1.46 1.32 1.24 1.08 0.95 0.96 1.01 0.98 0.91 1.01 1.04 1.24 1.15 1.11 1.06 1.00 0.93 0.94 0.90 0.79 0.91 1.05 1.05 1.01 0.79
0.26 0.35 0.42 0.52 0.66 0.79 1.02 1.30 1.62 1.90 1.93 1.76 1.66 1.68 1.67 1.65 1.52 1.31 1.26 1.15 1.12 1.11 1.06 1.10 1.10 1.00 0.92 0.96 1.00 1.11 1.12 1.18 1.24 1.08 0.95 0.97 0.90 0.79 0.87 0.83 0.82 0.89 0.72
0.21 0.31 0.37 0.35 0.48 0.57 0.66 0.82 1.12 1.35 1.50 1.57 1.56 1.55 1.65 1.66 1.49 1.33 1.25 1.19 1.04 0.99 1.02 1.06 1.15 1.08 1.04 1.01 1.06 1.04 1.02 1.11 1.18 1.06 0.93 0.87 0.76 0.80 0.87 0.91 0.78 0.75 0.61
0.16 0.25 0.35 0.34 0.35 0.39 0.51 0.65 0.86 1.04 1.17 1.26 1.36 1.41 1.41 1.33 1.33 1.41 1.29 1.20 1.13 1.06 1.02 1.06 1.04 1.04 1.04 1.02 1.24 1.06 0.96 1.02 1.01 0.92 1.07 1.01 0.73 0.73 0.84 0.94 1.02 0.98 0.84
0.25 0.27 0.31 0.34 0.27 0.30 0.38 0.46 0.63 0.78 0.88 1.01 1.17 1.19 1.21 1.14 1.15 1.20 1.18 1.12 1.18 1.17 1.08 1.00 0.98 1.02 1.08 1.13 1.22 1.13 1.12 1.16 1.03 0.95 1.06 1.00 0.82 0.75 0.70 0.86 1.09 1.24 1.17
0.37 0.36 0.29 0.34 0.29 0.28 0.34 0.39 0.49 0.62 0.72 0.84 0.92 0.93 1.09 1.10 1.19 1.18 1.10 1.03 1.00 1.00 1.03 1.00 0.94 1.01 1.10 1.19 1.26 1.26 1.35 1.42 1.28 1.14 1.14 1.07 0.95 0.97 0.81 0.84 1.02 1.20 1.33
0.39 0.40 0.34 0.31 0.27 0.26 0.28 0.30 0.42 0.53 0.62 0.74 0.81 0.88 0.94 0.99 1.05 1.10 1.10 1.07 1.02 1.00 1.00 1.01 1.00 1.02 1.08 1.18 1.23 1.20 1.37 1.51 1.54 1.36 1.27 1.22 1.18 1.16 1.03 1.04 1.11 1.18 1.33
0.25 0.31 0.33 0.31 0.22 0.24 0.24 0.25 0.30 0.37 0.46 0.65 0.79 0.83 0.92 0.97 0.97 1.00 1.17 1.19 1.16 1.14 1.15 1.15 1.17 1.13 1.10 1.16 1.15 1.09 1.16 1.35 1.55 1.72 1.78 1.57 1.44 1.39 1.26 1.25 1.23 1.22 1.30
0.23 0.35 0.41 0.35 0.25 0.24 0.25 0.27 0.31 0.36 0.42 0.55 0.68 0.78 0.87 0.96 1.02 1.10 1.24 1.37 1.36 1.35 1.37 1.41 1.36 1.34 1.34 1.30 1.25 1.23 1.27 1.34 1.41 1.60 1.78 1.77 1.80 1.63 1.54 1.46 1.37 1.32 1.26
0.23 0.29 0.44 0.41 0.29 0.24 0.28 0.30 0.35 0.41 0.51 0.67 0.79 0.85 1.01 1.14 1.20 1.19 1.29 1.36 1.45 1.50 1.55 1.60 1.55 1.52 1.54 1.51 1.46 1.42 1.41 1.42 1.42 1.45 1.51 1.62 1.81 1.77 1.71 1.61 1.56 1.53 1.52
0.31 0.41 0.51 0.53 0.45 0.39 0.37 0.39 0.49 0.58 0.75 0.95 1.01 1.02 1.11 1.20 1.30 1.41 1.49 1.60 1.67 1.70 1.81 1.79 1.70 1.67 1.67 1.55 1.59 1.70 1.70 1.72 1.58 1.48 1.42 1.41 1.58 1.66 1.67 1.52 1.52 1.61 1.65
0.38 0.42 0.56 0.62 0.63 0.61 0.58 0.64 0.75 0.90 1.11 1.35 1.43 1.51 1.57 1.60 1.66 1.73 1.78 1.89 1.94 1.94 1.87 1.81 1.80 1.78 1.63 1.74 1.75 1.66 1.68 1.83 1.84 1.73 1.63 1.51 1.42 1.43 1.47 1.53 1.55 1.56 1.56
0.52 0.53 0.64 0.71 0.79 0.78 0.76 0.84 0.94 1.13 1.32 1.45 1.47 1.53 1.63 1.71 1.77 1.85 1.88 1.90 1.90 1.86 1.77 1.79 1.83 1.79 1.83 1.77 1.58 1.45 1.44 1.51 1.61 1.68 1.66 1.46 1.33 1.38 1.35 1.50 1.54 1.46 1.39
0.65 0.65 0.72 0.77 0.79 0.84 0.90 0.96 1.03 1.10 1.31 1.41 1.42 1.42 1.46 1.53 1.63 1.72 1.74 1.71 1.68 1.64 1.60 1.60 1.53 1.49 1.47 1.48 1.31 1.26 1.24 1.24 1.22 1.32 1.42 1.39 1.30 1.29 1.31 1.24 1.15 1.10 1.10
0.61 0.66 0.75 0.76 0.80 0.83 0.89 0.89 0.94 1.03 1.14 1.21 1.25 1.24 1.31 1.41 1.49 1.53 1.55 1.57 1.55 1.42 1.30 1.25 1.25 1.25 1.30 1.41 1.24 1.18 1.17 1.21 1.12 1.11 1.12 1.12 1.04 1.08 1.03 0.96 0.87 0.82 0.83
0.55 0.63 0.76 0.78 0.79 0.81 0.84 0.85 0.89 0.98 1.10 1.23 1.31 1.33 1.37 1.45 1.44 1.44 1.44 1.42 1.39 1.34 1.31 1.24 1.20 1.19 1.21 1.32 1.16 1.10 1.10 1.15 1.11 1.10 1.13 1.22 1.06 0.93 0.77 0.75 0.77 0.70 0.67
0.57 0.61 0.73 0.85 0.85 0.86 0.91 0.97 0.97 1.01 1.10 1.19 1.26 1.29 1.30 1.31 1.31 1.35 1.31 1.34 1.35 1.33 1.26 1.19 1.18 1.21 1.20 1.20 1.04 0.94 0.89 0.93 0.94 0.89 0.90 1.01 1.00 0.81 0.67 0.67 0.68 0.63 0.61
0.46 0.60 0.71 0.80 0.88 0.98 1.08 1.12 1.07 1.06 1.11 1.21 1.25 1.22 1.21 1.19 1.18 1.15 1.12 1.14 1.16 1.14 1.13 1.14 1.16 1.23 1.23 1.07 0.93 0.79 0.73 0.75 0.76 0.86 0.88 0.98 1.00 0.80 0.68 0.59 0.57 0.53 0.47
0.43 0.50 0.60 0.74 0.82 0.95 1.07 1.15 1.19 1.21 1.19 1.22 1.26 1.23 1.18 1.16 1.18 1.18 1.17 1.16 1.16 1.16 1.13 1.07 1.00 1.00 1.04 1.02 0.86 0.69 0.61 0.64 0.69 0.90 1.12 1.14 1.08 0.92 0.76 0.68 0.66 0.54 0.46
0.55 0.60 0.68 0.71 0.75 0.83 0.94 1.06 1.15 1.20 1.26 1.26 1.23 1.20 1.17 1.13 1.16 1.23 1.22 1.20 1.19 1.15 1.09 1.03 0.98 0.98 1.00 0.99 0.92 0.81 0.72 0.73 0.78 0.94 1.12 1.23 1.25 1.15 0.99 0.90 0.82 0.65 0.61
0.70 0.73 0.78 0.79 0.79 0.83 0.89 1.01 1.10 1.15 1.19 1.23 1.23 1.18 1.11 1.07 1.08 1.10 1.10 1.05 1.04 1.04 1.00 0.93 0.91 0.92 0.93 0.94 0.91 0.82 0.75 0.72 0.75 0.87 1.09 1.27 1.40 1.41 1.37 1.23 1.11 0.98 0.87
0.79 0.77 0.80 0.81 0.81 0.87 0.96 0.99 1.10 1.24 1.30 1.26 1.16 1.09 0.99 0.96 0.95 0.95 0.98 1.04 0.94 0.95 0.89 0.84 0.78 0.74 0.78 0.79 0.69 0.63 0.62 0.62 0.66 0.78 1.00 1.25 1.44 1.51 1.60 1.58 1.46 1.27 1.11

GEFSMW_prec_meanprecacc_180.txt.gz
Total_Precipitation_Accumulation
1.86 2.16 2.53 2.88 3.09 3.25 3.35 3.65 3.85 3.55 3.06 2.62 2.10 1.86 1.76 1.56 1.37 1.23 1.11 1.11 1.04 1.11 1.13 0.95 1.11 0.99 0.97 1.01 1.05 1.17 1.18 1.08 1.06 1.43 1.63 1.37 1.07 1.03 0.93 0.90 1.02 1.08 1.11
1.39 1.48 1.70 2.03 2.12 2.33 2.65 3.01 3.25 3.09 2.55 2.29 2.04 1.87 1.76 1.63 1.57 1.42 1.27 1.11 1.06 1.07 0.97 1.11 0.99 1.00 1.07 1.10 1.13 1.21 1.21 1.08 1.05 1.35 1.67 1.48 1.47 1.35 0.76 0.84 0.94 1.00 1.18
1.02 1.02 1.10 1.27 1.57 2.05 2.20 2.25 2.50 2.70 2.43 2.28 2.19 2.07 1.93 1.71 1.72 1.61 1.42 1.11 0.99 1.01 1.03 1.01 0.98 1.11 0.92 1.10 1.25 1.23 1.26 1.22 1.11 1.12 1.36 1.39 1.36 1.24 1.03 0.85 0.81 0.92 1.14
0.69 0.83 0.85 0.91 1.10 1.43 1.71 1.96 2.20 2.37 2.30 2.17 1.96 1.78 1.59 1.46 1.42 1.42 1.41 1.29 1.17 1.03 1.01 0.96 1.04 1.13 0.97 1.21 1.00 1.05 1.22 1.29 1.14 1.07 0.94 0.94 1.09 1.21 1.21 1.04 0.85 0.87 0.97
0.38 0.56 0.67 0.76 0.79 0.98 1.37 1.79 2.12 2.34 2.24 1.94 1.76 1.73 1.63 1.56 1.49 1.40 1.48 1.36 1.30 1.12 0.99 1.01 1.07 1.07 1.00 1.07 1.10 1.31 1.22 1.18 1.14 1.11 1.04 1.03 0.97 0.83 0.95 1.08 1.08 1.03 0.81
0.26 0.36 0.42 0.52 0.66 0.79 1.02 1.30 1.62 1.90 1.93 1.77 1.67 1.69 1.69 1.66 1.53 1.33 1.28 1.18 1.16 1.14 1.09 1.14 1.14 1.08 1.00 1.02 1.04 1.15 1.16 1.22 1.28 1.14 1.02 1.05 0.98 0.88 0.93 0.87 0.85 0.92 0.74
0.21 0.31 0.37 0.36 0.49 0.57 0.66 0.82 1.12 1.35 1.51 1.58 1.59 1.56 1.67 1.67 1.50 1.35 1.26 1.22 1.06 1.01 1.05 1.12 1.21 1.15 1.12 1.07 1.11 1.09 1.07 1.16 1.22 1.10 0.97 0.92 0.82 0.87 0.95 0.96 0.82 0.78 0.62
0.16 0.26 0.36 0.36 0.37 0.40 0.51 0.65 0.87 1.05 1.19 1.28 1.38 1.42 1.43 1.34 1.33 1.41 1.31 1.22 1.16 1.10 1.07 1.10 1.10 1.10 1.11 1.10 1.30 1.11 1.01 1.08 1.06 0.97 1.12 1.06 0.79 0.80 0.91 1.00 1.08 1.02 0.86
0.25 0.28 0.33 0.35 0.28 0.31 0.39 0.46 0.64 0.79 0.89 1.02 1.18 1.20 1.23 1.16 1.16 1.22 1.20 1.16 1.22 1.20 1.11 1.03 1.02 1.06 1.14 1.21 1.29 1.18 1.17 1.21 1.07 1.00 1.11 1.05 0.86 0.81 0.76 0.92 1.15 1.30 1.21
0.37 0.37 0.30 0.34 0.30 0.29 0.34 0.40 0.49 0.63 0.73 0.85 0.93 0.94 1.11 1.12 1.21 1.19 1.12 1.05 1.03 1.04 1.07 1.03 0.97 1.03 1.13 1.22 1.29 1.30 1.40 1.46 1.31 1.19 1.19 1.11 1.00 1.02 0.87 0.91 1.09 1.26 1.39
0.40 0.41 0.35 0.32 0.27 0.26 0.28 0.31 0.43 0.54 0.63 0.74 0.81 0.89 0.94 1.00 1.06 1.11 1.11 1.08 1.03 1.02 1.04 1.05 1.04 1.05 1.10 1.20 1.25 1.21 1.40 1.54 1.57 1.40 1.32 1.27 1.25 1.24 1.11 1.12 1.19 1.25 1.41
0.25 0.32 0.33 0.31 0.23 0.25 0.26 0.26 0.32 0.39 0.47 0.65 0.80 0.84 0.93 0.99 1.00 1.03 1.19 1.20 1.17 1.15 1.16 1.17 1.20 1.16 1.14 1.21 1.18 1.11 1.19 1.38 1.59 1.77 1.82 1.63 1.51 1.47 1.34 1.33 1.29 1.29 1.38
0.23 0.35 0.41 0.36 0.26 0.25 0.28 0.30 0.33 0.38 0.43 0.55 0.69 0.80 0.88 0.98 1.08 1.19 1.31 1.42 1.39 1.37 1.39 1.42 1.38 1.36 1.37 1.33 1.27 1.25 1.29 1.38 1.44 1.64 1.83 1.83 1.86 1.68 1.59 1.51 1.44 1.39 1.34
0.24 0.30 0.45 0.42 0.30 0.25 0.30 0.32 0.38 0.44 0.53 0.68 0.81 0.87 1.03 1.18 1.27 1.30 1.42 1.48 1.51 1.55 1.58 1.62 1.57 1.54 1.55 1.52 1.47 1.43 1.42 1.44 1.44 1.47 1.54 1.65 1.87 1.83 1.77 1.67 1.62 1.60 1.59
0.32 0.42 0.52 0.54 0.47 0.43 0.42 0.44 0.54 0.63 0.77 0.96 1.03 1.05 1.15 1.28 1.45 1.63 1.69 1.72 1.75 1.75 1.85 1.83 1.72 1.68 1.69 1.56 1.60 1.71 1.71 1.74 1.60 1.50 1.44 1.44 1.61 1.69 1.70 1.56 1.57 1.67 1.71
0.38 0.44 0.58 0.66 0.68 0.66 0.65 0.70 0.81 0.95 1.14 1.38 1.47 1.56 1.65 1.74 1.84 1.90 1.92 2.00 2.02 1.99 1.91 1.84 1.82 1.79 1.65 1.75 1.76 1.67 1.69 1.85 1.86 1.75 1.66 1.54 1.45 1.45 1.49 1.56 1.59 1.62 1.62
0.53 0.54 0.66 0.74 0.82 0.81 0.79 0.89 0.98 1.18 1.37 1.49 1.55 1.66 1.76 1.84 1.90 1.98 2.02 1.97 1.95 1.89 1.80 1.82 1.86 1.82 1.85 1.79 1.59 1.46 1.46 1.53 1.64 1.70 1.68 1.49 1.35 1.40 1.37 1.53 1.58 1.51 1.45
0.66 0.66 0.73 0.78 0.79 0.85 0.93 1.01 1.06 1.14 1.36 1.47 1.50 1.51 1.56 1.63 1.75 1.84 1.82 1.75 1.72 1.68 1.63 1.63 1.56 1.52 1.50 1.51 1.34 1.30 1.26 1.26 1.24 1.34 1.44 1.41 1.32 1.31 1.33 1.27 1.18 1.13 1.15
0.62 0.67 0.76 0.77 0.82 0.85 0.91 0.91 0.98 1.07 1.19 1.27 1.32 1.32 1.41 1.50 1.58 1.60 1.60 1.62 1.59 1.45 1.34 1.28 1.28 1.27 1.33 1.45 1.28 1.21 1.18 1.22 1.14 1.13 1.14 1.14 1.07 1.11 1.08 1.00 0.91 0.86 0.88
0.56 0.64 0.77 0.79 0.81 0.86 0.89 0.91 0.97 1.08 1.20 1.32 1.40 1.44 1.48 1.54 1.53 1.53 1.53 1.49 1.44 1.38 1.35 1.27 1.22 1.22 1.23 1.35 1.19 1.11 1.11 1.16 1.12 1.12 1.16 1.25 1.10 0.97 0.82 0.80 0.83 0.75 0.73
0.58 0.63 0.75 0.87 0.88 0.90 0.98 1.05 1.09 1.13 1.20 1.30 1.38 1.39 1.40 1.41 1.43 1.48 1.41 1.42 1.42 1.38 1.29 1.22 1.20 1.23 1.22 1.23 1.07 0.96 0.90 0.94 0.94 0.90 0.91 1.02 1.02 0.83 0.69 0.70 0.71 0.66 0.64
0.48 0.63 0.74 0.84 0.93 1.03 1.15 1.20 1.16 1.17 1.24 1.36 1.41 1.36 1.34 1.33 1.32 1.30 1.25 1.25 1.25 1.21 1.18 1.17 1.19 1.26 1.25 1.10 0.96 0.82 0.75 0.77 0.78 0.86 0.90 0.99 1.01 0.81 0.69 0.60 0.58 0.54 0.49
0.47 0.54 0.65 0.80 0.89 1.03 1.16 1.25 1.29 1.35 1.36 1.42 1.47 1.46 1.41 1.36 1.35 1.36 1.36 1.31 1.29 1.27 1.21 1.14 1.06 1.04 1.07 1.07 0.90 0.71 0.64 0.67 0.71 0.92 1.13 1.15 1.09 0.93 0.77 0.70 0.68 0.56 0.48
0.61 0.67 0.75 0.81 0.88 0.97 1.07 1.17 1.26 1.33 1.44 1.45 1.44 1.44 1.42 1.39 1.37 1.40 1.39 1.36 1.32 1.26 1.18 1.10 1.04 1.04 1.05 1.02 0.95 0.84 0.74 0.75 0.79 0.95 1.14 1.24 1.26 1.16 1.01 0.91 0.83 0.66 0.62
0.79 0.82 0.86 0.89 0.92 0.98 1.04 1.15 1.23 1.26 1.34 1.39 1.37 1.33 1.28 1.27 1.28 1.28 1.27 1.21 1.16 1.12 1.06 0.99 0.96 0.96 0.96 0.97 0.93 0.84 0.76 0.73 0.77 0.89 1.11 1.29 1.42 1.43 1.38 1.24 1.12 0.99 0.88
0.86 0.84 0.87 0.88 0.89 0.96 1.05 1.10 1.22 1.35 1.41 1.36 1.27 1.21 1.11 1.09 1.08 1.08 1.11 1.17 1.04 1.02 0.95 0.90 0.83 0.77 0.81 0.81 0.71 0.65 0.63 0.64 0.69 0.80 1.02 1.27 1.46 1.53 1.61 1.59 1.47 1.28 1.11

GEFSMW_prec_meanprecacc_186.txt.gz
Total_Precipitation_Accumulation
1.86 2.16 2.53 2.88 3.09 3.25 3.36 3.66 3.86 3.56 3.07 2.64 2.12 1.87 1.78 1.59 1.41 1.27 1.15 1.16 1.09 1.18 1.24 1.01 1.22 1.09 1.08 1.13 1.16 1.26 1.26 1.16 1.15 1.51 1.71 1.39 1.08 1.04 0.94 0.92 1.03 1.10 1.13
1.39 1.48 1.70 2.03 2.12 2.33 2.65 3.02 3.26 3.10 2.56 2.31 2.06 1.89 1.78 1.66 1.60 1.45 1.32 1.17 1.13 1.15 1.05 1.21 1.09 1.10 1.19 1.23 1.26 1.33 1.32 1.17 1.14 1.46 1.77 1.56 1.52 1.38 0.77 0.85 0.95 1.03 1.21
1.02 1.02 1.10 1.27 1.57 2.05 2.20 2.25 2.51 2.70 2.44 2.29 2.20 2.08 1.95 1.73 1.75 1.65 1.47 1.17 1.07 1.09 1.11 1.10 1.08 1.22 1.04 1.25 1.40 1.36 1.41 1.36 1.23 1.24 1.49 1.51 1.47 1.31 1.06 0.86 0.82 0.93 1.17
0.69 0.83 0.85 0.91 1.10 1.43 1.71 1.96 2.20 2.37 2.31 2.18 1.97 1.80 1.60 1.48 1.46 1.48 1.48 1.35 1.23 1.08 1.07 1.07 1.17 1.27 1.11 1.36 1.12 1.16 1.36 1.44 1.27 1.18 1.05 1.08 1.23 1.33 1.30 1.11 0.89 0.89 0.99
0.38 0.56 0.67 0.76 0.79 0.98 1.37 1.79 2.12 2.35 2.25 1.96 1.78 1.75 1.64 1.58 1.51 1.42 1.56 1.43 1.35 1.16 1.02 1.09 1.17 1.19 1.12 1.18 1.19 1.40 1.31 1.28 1.25 1.22 1.15 1.15 1.10 0.96 1.07 1.17 1.17 1.09 0.85
0.26 0.36 0.42 0.52 0.66 0.79 1.02 1.30 1.62 1.90 1.94 1.78 1.69 1.71 1.71 1.68 1.54 1.34 1.30 1.22 1.20 1.17 1.13 1.19 1.21 1.15 1.07 1.09 1.12 1.23 1.25 1.31 1.37 1.24 1.10 1.14 1.10 1.00 1.06 0.95 0.93 1.00 0.78
0.21 0.31 0.37 0.36 0.49 0.57 0.66 0.82 1.12 1.35 1.51 1.59 1.60 1.58 1.68 1.69 1.51 1.35 1.28 1.24 1.08 1.04 1.10 1.17 1.27 1.20 1.17 1.13 1.18 1.18 1.15 1.24 1.30 1.20 1.06 1.00 0.91 0.99 1.09 1.09 0.92 0.87 0.69
0.16 0.26 0.36 0.36 0.37 0.40 0.51 0.65 0.87 1.06 1.19 1.28 1.39 1.44 1.44 1.35 1.34 1.42 1.32 1.25 1.20 1.14 1.11 1.15 1.15 1.15 1.15 1.14 1.37 1.19 1.10 1.14 1.13 1.03 1.19 1.13 0.85 0.86 0.99 1.10 1.20 1.11 0.93
0.25 0.28 0.33 0.35 0.28 0.31 0.39 0.46 0.64 0.79 0.90 1.03 1.19 1.22 1.25 1.17 1.17 1.23 1.22 1.17 1.24 1.25 1.19 1.11 1.07 1.11 1.18 1.25 1.33 1.23 1.22 1.26 1.13 1.05 1.16 1.10 0.91 0.86 0.83 1.01 1.26 1.40 1.28
0.37 0.37 0.30 0.34 0.30 0.29 0.35 0.40 0.50 0.63 0.73 0.86 0.94 0.95 1.13 1.13 1.22 1.20 1.13 1.06 1.04 1.07 1.12 1.11 1.04 1.10 1.17 1.26 1.33 1.34 1.43 1.50 1.35 1.22 1.23 1.15 1.05 1.08 0.93 0.99 1.18 1.37 1.48
0.40 0.41 0.35 0.32 0.27 0.26 0.29 0.31 0.43 0.54 0.63 0.76 0.82 0.90 0.96 1.01 1.07 1.12 1.11 1.08 1.04 1.03 1.06 1.10 1.10 1.13 1.17 1.25 1.29 1.25 1.44 1.57 1.60 1.43 1.35 1.31 1.29 1.28 1.16 1.18 1.25 1.32 1.48
0.25 0.32 0.33 0.31 0.23 0.25 0.26 0.26 0.32 0.40 0.49 0.68 0.82 0.85 0.94 0.99 1.00 1.04 1.22 1.22 1.18 1.16 1.17 1.19 1.24 1.24 1.22 1.28 1.25 1.15 1.22 1.41 1.62 1.80 1.86 1.66 1.54 1.50 1.38 1.36 1.33 1.34 1.44
0.23 0.35 0.42 0.36 0.27 0.26 0.28 0.30 0.35 0.40 0.46 0.59 0.71 0.81 0.89 0.99 1.08 1.19 1.33 1.44 1.41 1.39 1.40 1.44 1.40 1.39 1.41 1.37 1.31 1.28 1.33 1.41 1.47 1.67 1.86 1.85 1.89 1.71 1.62 1.54 1.47 1.43 1.38
0.24 0.30 0.45 0.42 0.30 0.26 0.31 0.33 0.39 0.46 0.57 0.72 0.82 0.87 1.03 1.18 1.28 1.31 1.44 1.50 1.53 1.56 1.60 1.65 1.60 1.55 1.57 1.54 1.49 1.45 1.44 1.47 1.47 1.49 1.56 1.67 1.88 1.86 1.80 1.70 1.65 1.64 1.64
0.32 0.42 0.52 0.55 0.48 0.43 0.42 0.45 0.55 0.64 0.79 0.98 1.04 1.05 1.15 1.28 1.45 1.64 1.71 1.73 1.76 1.76 1.87 1.84 1.74 1.70 1.70 1.58 1.62 1.74 1.73 1.76 1.62 1.52 1.47 1.46 1.63 1.71 1.72 1.58 1.60 1.71 1.76
0.39 0.44 0.59 0.66 0.68 0.67 0.66 0.71 0.81 0.95 1.16 1.40 1.47 1.57 1.65 1.74 1.85 1.92 1.94 2.01 2.03 2.01 1.94 1.86 1.84 1.81 1.67 1.77 1.78 1.69 1.71 1.87 1.88 1.77 1.68 1.56 1.46 1.46 1.51 1.57 1.60 1.64 1.66
0.54 0.55 0.67 0.74 0.82 0.81 0.79 0.89 0.99 1.18 1.37 1.50 1.56 1.68 1.78 1.86 1.91 1.99 2.04 2.02 2.00 1.94 1.85 1.85 1.88 1.84 1.87 1.81 1.61 1.48 1.47 1.55 1.65 1.72 1.70 1.49 1.35 1.41 1.37 1.53 1.59 1.52 1.46
0.66 0.66 0.73 0.78 0.80 0.86 0.93 1.01 1.06 1.14 1.38 1.50 1.55 1.57 1.61 1.67 1.78 1.88 1.89 1.83 1.79 1.76 1.70 1.69 1.60 1.54 1.53 1.53 1.35 1.31 1.27 1.27 1.25 1.35 1.45 1.42 1.33 1.32 1.34 1.28 1.19 1.14 1.15
0.62 0.67 0.76 0.77 0.82 0.85 0.91 0.91 0.98 1.08 1.21 1.29 1.35 1.36 1.46 1.56 1.64 1.69 1.71 1.73 1.69 1.53 1.39 1.32 1.30 1.29 1.35 1.47 1.30 1.23 1.19 1.23 1.15 1.14 1.15 1.15 1.08 1.12 1.09 1.02 0.92 0.87 0.89
0.56 0.64 0.77 0.79 0.81 0.87 0.89 0.91 0.98 1.10 1.23 1.36 1.46 1.51 1.56 1.64 1.61 1.62 1.64 1.59 1.52 1.43 1.39 1.31 1.25 1.24 1.26 1.37 1.21 1.13 1.12 1.18 1.15 1.13 1.17 1.27 1.12 0.98 0.83 0.81 0.84 0.76 0.74
0.59 0.63 0.75 0.88 0.88 0.91 0.98 1.06 1.10 1.16 1.25 1.33 1.42 1.45 1.47 1.51 1.51 1.56 1.50 1.49 1.47 1.43 1.34 1.26 1.24 1.26 1.24 1.24 1.08 0.97 0.93 0.97 0.98 0.92 0.92 1.04 1.03 0.84 0.70 0.70 0.72 0.67 0.65
0.49 0.64 0.74 0.85 0.94 1.04 1.16 1.21 1.17 1.18 1.26 1.38 1.46 1.43 1.43 1.41 1.39 1.36 1.31 1.31 1.31 1.27 1.22 1.22 1.23 1.29 1.27 1.13 0.99 0.85 0.79 0.82 0.82 0.90 0.91 1.00 1.03 0.82 0.70 0.61 0.59 0.55 0.50
0.48 0.55 0.66 0.81 0.90 1.04 1.17 1.26 1.30 1.37 1.40 1.46 1.53 1.55 1.49 1.44 1.43 1.44 1.42 1.36 1.35 1.33 1.26 1.19 1.10 1.08 1.12 1.11 0.95 0.78 0.70 0.73 0.75 0.94 1.15 1.17 1.11 0.94 0.78 0.70 0.69 0.57 0.49
0.62 0.68 0.76 0.82 0.89 0.98 1.09 1.20 1.29 1.36 1.48 1.51 1.53 1.56 1.55 1.52 1.47 1.47 1.45 1.41 1.37 1.31 1.22 1.14 1.08 1.08 1.10 1.07 1.01 0.90 0.79 0.79 0.83 0.98 1.16 1.26 1.28 1.18 1.02 0.93 0.85 0.69 0.65
0.81 0.83 0.88 0.91 0.94 1.00 1.09 1.22 1.31 1.36 1.44 1.52 1.52 1.50 1.46 1.43 1.41 1.38 1.35 1.27 1.22 1.18 1.11 1.02 1.00 1.00 1.01 1.02 0.99 0.89 0.80 0.76 0.79 0.91 1.13 1.30 1.43 1.44 1.40 1.26 1.15 1.02 0.90
0.88 0.87 0.90 0.91 0.92 0.99 1.10 1.16 1.31 1.46 1.53 1.49 1.37 1.30 1.20 1.17 1.16 1.16 1.18 1.23 1.09 1.07 1.00 0.94 0.86 0.80 0.85 0.85 0.75 0.68 0.66 0.65 0.70 0.82 1.03 1.27 1.46 1.53 1.62 1.59 1.48 1.28 1.12

GEFSMW_prec_meanprecacc_192.txt.gz
Total_Precipitation_Accumulation
1.86 2.16 2.53 2.88 3.09 3.25 3.36 3.67 3.88 3.59 3.09 2.66 2.15 1.91 1.82 1.63 1.45 1.32 1.22 1.22 1.15 1.26 1.33 1.08 1.31 1.17 1.14 1.19 1.22 1.34 1.34 1.23 1.21 1.57 1.76 1.42 1.10 1.08 0.96 0.93 1.05 1.12 1.15
1.39 1.48 1.70 2.03 2.12 2.33 2.65 3.03 3.27 3.11 2.57 2.32 2.09 1.93 1.82 1.69 1.64 1.50 1.40 1.24 1.20 1.24 1.13 1.31 1.16 1.18 1.27 1.29 1.34 1.43 1.41 1.25 1.22 1.54 1.87 1.65 1.60 1.43 0.79 0.87 0.97 1.05 1.24
1.02 1.02 1.10 1.27 1.57 2.05 2.20 2.26 2.52 2.71 2.45 2.31 2.22 2.10 1.98 1.77 1.80 1.70 1.53 1.22 1.12 1.16 1.18 1.18 1.17 1.32 1.13 1.35 1.51 1.46 1.51 1.47 1.32 1.33 1.60 1.66 1.62 1.43 1.12 0.89 0.85 0.96 1.21
0.69 0.83 0.85 0.91 1.10 1.43 1.71 1.96 2.21 2.38 2.32 2.19 1.98 1.82 1.63 1.52 1.49 1.51 1.52 1.39 1.28 1.12 1.12 1.12 1.23 1.36 1.18 1.44 1.17 1.24 1.46 1.54 1.38 1.30 1.18 1.21 1.37 1.49 1.44 1.20 0.95 0.94 1.05
0.38 0.56 0.67 0.76 0.79 0.98 1.37 1.79 2.12 2.36 2.26 1.98 1.80 1.78 1.67 1.62 1.53 1.45 1.60 1.48 1.41 1.22 1.07 1.13 1.22 1.26 1.18 1.24 1.25 1.49 1.39 1.35 1.33 1.33 1.29 1.29 1.22 1.09 1.21 1.31 1.27 1.17 0.92
0.26 0.36 0.42 0.52 0.66 0.79 1.02 1.30 1.63 1.91 1.95 1.79 1.71 1.74 1.75 1.71 1.59 1.39 1.35 1.25 1.25 1.22 1.17 1.24 1.26 1.20 1.12 1.15 1.19 1.31 1.33 1.39 1.45 1.32 1.20 1.27 1.22 1.12 1.18 1.07 1.07 1.13 0.86
0.21 0.31 0.37 0.36 0.49 0.57 0.66 0.82 1.12 1.36 1.52 1.59 1.61 1.60 1.71 1.71 1.54 1.38 1.30 1.26 1.11 1.06 1.14 1.22 1.34 1.26 1.24 1.19 1.26 1.26 1.23 1.31 1.37 1.26 1.13 1.11 1.00 1.07 1.16 1.18 1.03 0.99 0.79
0.16 0.26 0.36 0.36 0.37 0.40 0.52 0.66 0.87 1.06 1.20 1.29 1.41 1.47 1.47 1.37 1.36 1.44 1.34 1.27 1.21 1.15 1.14 1.21 1.19 1.20 1.21 1.19 1.43 1.24 1.15 1.19 1.19 1.08 1.27 1.21 0.92 0.93 1.06 1.19 1.29 1.21 1.02
0.25 0.28 0.33 0.35 0.29 0.31 0.40 0.47 0.64 0.80 0.90 1.03 1.20 1.24 1.28 1.19 1.20 1.25 1.24 1.19 1.26 1.27 1.22 1.14 1.10 1.14 1.22 1.28 1.37 1.28 1.27 1.30 1.17 1.10 1.22 1.15 0.96 0.92 0.89 1.07 1.34 1.50 1.38
0.37 0.38 0.31 0.35 0.31 0.29 0.35 0.41 0.50 0.63 0.74 0.87 0.94 0.96 1.15 1.16 1.25 1.23 1.15 1.08 1.06 1.09 1.14 1.12 1.06 1.12 1.19 1.29 1.36 1.38 1.47 1.53 1.39 1.26 1.26 1.20 1.09 1.13 0.99 1.04 1.24 1.46 1.59
0.40 0.41 0.35 0.32 0.28 0.27 0.29 0.32 0.43 0.55 0.64 0.76 0.83 0.90 0.96 1.02 1.09 1.14 1.14 1.11 1.07 1.05 1.08 1.12 1.14 1.16 1.21 1.30 1.33 1.29 1.47 1.60 1.63 1.46 1.38 1.34 1.33 1.33 1.21 1.23 1.29 1.37 1.56
0.25 0.32 0.33 0.32 0.24 0.26 0.27 0.28 0.34 0.41 0.50 0.69 0.82 0.85 0.94 1.00 1.02 1.06 1.24 1.24 1.20 1.18 1.20 1.22 1.28 1.28 1.26 1.33 1.30 1.20 1.26 1.45 1.65 1.84 1.89 1.69 1.59 1.57 1.43 1.41 1.37 1.39 1.51
0.24 0.35 0.42 0.37 0.28 0.27 0.29 0.32 0.38 0.43 0.48 0.60 0.72 0.81 0.89 0.99 1.09 1.21 1.36 1.47 1.43 1.41 1.43 1.48 1.44 1.43 1.45 1.41 1.35 1.33 1.37 1.45 1.52 1.71 1.90 1.90 1.94 1.76 1.68 1.60 1.52 1.48 1.44
0.24 0.30 0.45 0.43 0.32 0.28 0.32 0.35 0.42 0.48 0.59 0.73 0.82 0.88 1.04 1.19 1.29 1.34 1.47 1.54 1.57 1.60 1.64 1.69 1.64 1.60 1.61 1.58 1.52 1.48 1.47 1.51 1.51 1.53 1.59 1.71 1.92 1.89 1.84 1.74 1.69 1.67 1.68
0.32 0.42 0.53 0.56 0.49 0.45 0.44 0.46 0.56 0.66 0.83 1.02 1.06 1.07 1.17 1.31 1.48 1.68 1.75 1.78 1.81 1.81 1.94 1.90 1.80 1.75 1.74 1.61 1.65 1.77 1.77 1.80 1.65 1.55 1.49 1.48 1.65 1.73 1.74 1.60 1.62 1.73 1.79
0.39 0.44 0.59 0.67 0.69 0.67 0.66 0.72 0.82 0.97 1.19 1.44 1.53 1.61 1.69 1.78 1.89 1.96 1.99 2.07 2.10 2.07 2.01 1.94 1.91 1.87 1.71 1.80 1.82 1.73 1.75 1.92 1.92 1.80 1.71 1.58 1.48 1.48 1.52 1.58 1.61 1.65 1.67
0.55 0.55 0.67 0.75 0.83 0.82 0.80 0.90 1.00 1.20 1.39 1.52 1.59 1.72 1.83 1.92 1.98 2.05 2.10 2.07 2.05 1.99 1.91 1.94 1.96 1.90 1.91 1.85 1.63 1.51 1.51 1.59 1.69 1.76 1.74 1.52 1.39 1.45 1.40 1.55 1.60 1.53 1.47
0.66 0.67 0.74 0.79 0.80 0.86 0.94 1.02 1.07 1.15 1.39 1.52 1.58 1.61 1.67 1.74 1.85 1.96 1.95 1.87 1.83 1.80 1.75 1.74 1.66 1.61 1.60 1.59 1.39 1.33 1.29 1.30 1.28 1.39 1.49 1.45 1.36 1.35 1.38 1.31 1.22 1.16 1.17
0.62 0.67 0.76 0.78 0.82 0.86 0.92 0.93 0.99 1.09 1.22 1.31 1.39 1.41 1.51 1.61 1.69 1.74 1.76 1.78 1.73 1.57 1.42 1.35 1.35 1.34 1.40 1.52 1.33 1.26 1.22 1.27 1.18 1.18 1.18 1.19 1.11 1.15 1.12 1.04 0.95 0.90 0.91
0.56 0.65 0.77 0.79 0.82 0.87 0.90 0.92 1.00 1.12 1.25 1.39 1.49 1.56 1.61 1.68 1.65 1.67 1.69 1.64 1.56 1.46 1.43 1.35 1.29 1.28 1.30 1.42 1.25 1.16 1.15 1.22 1.18 1.17 1.20 1.29 1.14 1.01 0.85 0.82 0.85 0.78 0.76
0.59 0.64 0.76 0.88 0.89 0.92 0.99 1.07 1.12 1.19 1.27 1.37 1.47 1.51 1.53 1.56 1.58 1.62 1.56 1.53 1.52 1.47 1.38 1.30 1.28 1.29 1.28 1.29 1.12 1.01 0.95 1.00 1.01 0.96 0.96 1.07 1.07 0.87 0.72 0.72 0.73 0.68 0.66
0.49 0.64 0.75 0.86 0.95 1.05 1.16 1.22 1.19 1.20 1.29 1.42 1.51 1.49 1.50 1.48 1.46 1.44 1.38 1.37 1.36 1.31 1.27 1.26 1.26 1.32 1.31 1.17 1.03 0.89 0.82 0.85 0.85 0.94 0.95 1.05 1.07 0.85 0.72 0.62 0.60 0.56 0.50
0.49 0.56 0.67 0.82 0.91 1.05 1.19 1.28 1.33 1.40 1.43 1.50 1.60 1.63 1.60 1.55 1.55 1.56 1.53 1.46 1.44 1.40 1.31 1.23 1.13 1.12 1.16 1.16 0.99 0.81 0.74 0.77 0.79 0.98 1.19 1.20 1.13 0.96 0.79 0.71 0.70 0.58 0.50
0.63 0.68 0.76 0.83 0.90 0.99 1.10 1.22 1.32 1.41 1.53 1.57 1.60 1.64 1.64 1.63 1.62 1.64 1.61 1.55 1.49 1.41 1.31 1.21 1.13 1.12 1.14 1.13 1.07 0.95 0.83 0.82 0.85 1.00 1.18 1.28 1.29 1.19 1.03 0.94 0.86 0.70 0.65
0.81 0.84 0.89 0.91 0.95 1.01 1.10 1.23 1.33 1.40 1.49 1.58 1.61 1.58 1.56 1.56 1.55 1.53 1.49 1.40 1.33 1.28 1.20 1.10 1.05 1.04 1.05 1.07 1.04 0.93 0.83 0.78 0.81 0.93 1.15 1.32 1.44 1.45 1.41 1.27 1.15 1.02 0.91
0.89 0.88 0.91 0.92 0.94 1.00 1.11 1.18 1.33 1.49 1.56 1.54 1.45 1.38 1.30 1.28 1.28 1.26 1.28 1.32 1.18 1.18 1.10 1.02 0.93 0.86 0.89 0.89 0.78 0.71 0.69 0.68 0.73 0.83 1.05 1.29 1.47 1.54 1.62 1.60 1.48 1.29 1.12

GEFSMW_prec_meanprecacc_198.txt.gz
Total_Precipitation_Accumulation
1.86 2.16 2.53 2.88 3.09 3.25 3.36 3.67 3.88 3.59 3.10 2.67 2.15 1.93 1.83 1.65 1.47 1.33 1.24 1.25 1.18 1.30 1.37 1.12 1.36 1.21 1.18 1.24 1.26 1.38 1.38 1.27 1.25 1.60 1.78 1.44 1.13 1.12 1.01 0.99 1.13 1.20 1.23
1.39 1.48 1.70 2.03 2.12 2.33 2.65 3.03 3.27 3.11 2.57 2.32 2.09 1.94 1.84 1.71 1.66 1.51 1.43 1.26 1.22 1.26 1.16 1.34 1.21 1.23 1.32 1.35 1.40 1.48 1.47 1.31 1.26 1.57 1.90 1.66 1.62 1.47 0.83 0.93 1.06 1.16 1.36
1.02 1.02 1.10 1.27 1.57 2.05 2.20 2.26 2.52 2.71 2.45 2.31 2.22 2.10 1.99 1.79 1.83 1.72 1.55 1.24 1.14 1.17 1.20 1.20 1.20 1.37 1.18 1.40 1.55 1.51 1.56 1.52 1.37 1.39 1.65 1.69 1.66 1.46 1.14 0.93 0.92 1.09 1.39
0.69 0.84 0.85 0.91 1.10 1.43 1.71 1.96 2.21 2.39 2.32 2.19 1.98 1.82 1.64 1.53 1.51 1.53 1.54 1.42 1.30 1.14 1.13 1.14 1.26 1.40 1.21 1.47 1.20 1.26 1.49 1.58 1.43 1.36 1.24 1.27 1.43 1.54 1.48 1.24 1.02 1.04 1.18
0.39 0.57 0.67 0.76 0.79 0.98 1.37 1.79 2.13 2.36 2.26 1.98 1.80 1.79 1.68 1.63 1.56 1.47 1.62 1.51 1.45 1.25 1.09 1.15 1.25 1.30 1.22 1.28 1.28 1.52 1.43 1.40 1.38 1.39 1.39 1.41 1.31 1.14 1.25 1.35 1.32 1.23 0.99
0.27 0.36 0.43 0.53 0.67 0.79 1.02 1.30 1.63 1.91 1.95 1.80 1.71 1.74 1.76 1.73 1.60 1.40 1.37 1.27 1.28 1.25 1.20 1.26 1.28 1.22 1.16 1.20 1.22 1.34 1.36 1.42 1.48 1.36 1.25 1.32 1.27 1.18 1.24 1.11 1.10 1.18 0.91
0.22 0.32 0.39 0.41 0.51 0.58 0.67 0.83 1.14 1.37 1.54 1.60 1.62 1.61 1.73 1.73 1.55 1.38 1.31 1.29 1.12 1.08 1.15 1.23 1.35 1.28 1.27 1.25 1.32 1.30 1.27 1.34 1.40 1.29 1.16 1.13 1.03 1.11 1.21 1.23 1.07 1.03 0.82
0.18 0.28 0.38 0.39 0.41 0.43 0.54 0.68 0.90 1.10 1.23 1.32 1.43 1.48 1.48 1.39 1.37 1.45 1.35 1.28 1.22 1.16 1.15 1.21 1.20 1.21 1.23 1.22 1.48 1.29 1.19 1.23 1.22 1.11 1.29 1.23 0.94 0.97 1.09 1.22 1.34 1.25 1.04
0.28 0.33 0.44 0.46 0.35 0.35 0.44 0.52 0.69 0.83 0.93 1.07 1.22 1.26 1.30 1.21 1.21 1.26 1.25 1.20 1.27 1.28 1.24 1.16 1.11 1.16 1.24 1.31 1.41 1.32 1.32 1.34 1.20 1.13 1.24 1.17 0.98 0.95 0.92 1.11 1.39 1.55 1.41
0.40 0.43 0.39 0.41 0.35 0.33 0.40 0.47 0.58 0.69 0.80 0.93 0.98 0.98 1.17 1.17 1.26 1.24 1.16 1.09 1.08 1.10 1.16 1.14 1.08 1.13 1.21 1.31 1.39 1.42 1.52 1.58 1.44 1.30 1.29 1.22 1.11 1.15 1.01 1.06 1.28 1.49 1.63
0.42 0.43 0.39 0.41 0.37 0.35 0.38 0.41 0.52 0.62 0.72 0.83 0.88 0.94 0.99 1.05 1.11 1.15 1.15 1.12 1.08 1.07 1.10 1.14 1.16 1.18 1.23 1.32 1.36 1.33 1.52 1.66 1.68 1.50 1.42 1.37 1.36 1.35 1.23 1.25 1.32 1.40 1.59
0.27 0.34 0.39 0.45 0.34 0.34 0.38 0.39 0.44 0.50 0.58 0.75 0.88 0.91 1.01 1.05 1.05 1.09 1.26 1.26 1.22 1.20 1.22 1.24 1.31 1.29 1.28 1.35 1.34 1.25 1.30 1.48 1.69 1.88 1.92 1.71 1.62 1.59 1.45 1.43 1.39 1.40 1.53
0.27 0.38 0.45 0.41 0.33 0.32 0.36 0.40 0.46 0.51 0.54 0.64 0.76 0.85 0.94 1.03 1.12 1.25 1.39 1.50 1.46 1.45 1.48 1.50 1.46 1.45 1.47 1.45 1.40 1.38 1.41 1.49 1.56 1.74 1.93 1.93 1.96 1.78 1.71 1.62 1.53 1.49 1.45
0.29 0.34 0.48 0.47 0.38 0.35 0.39 0.41 0.49 0.56 0.65 0.78 0.86 0.91 1.07 1.22 1.32 1.37 1.50 1.57 1.61 1.66 1.68 1.71 1.67 1.63 1.65 1.63 1.58 1.53 1.52 1.55 1.55 1.56 1.62 1.73 1.95 1.93 1.88 1.76 1.71 1.70 1.70
0.35 0.46 0.55 0.59 0.56 0.53 0.51 0.52 0.62 0.72 0.88 1.06 1.09 1.11 1.20 1.34 1.52 1.72 1.80 1.84 1.87 1.86 1.96 1.92 1.83 1.80 1.80 1.67 1.71 1.83 1.82 1.85 1.70 1.59 1.52 1.50 1.68 1.76 1.77 1.62 1.65 1.76 1.82
0.41 0.48 0.63 0.70 0.75 0.77 0.75 0.78 0.87 1.02 1.23 1.48 1.57 1.66 1.74 1.84 1.94 2.01 2.03 2.11 2.14 2.10 2.03 1.96 1.96 1.93 1.77 1.86 1.87 1.79 1.82 1.97 1.97 1.84 1.76 1.63 1.52 1.52 1.56 1.61 1.65 1.69 1.71
0.58 0.61 0.74 0.80 0.88 0.87 0.86 0.95 1.05 1.25 1.45 1.58 1.64 1.76 1.87 1.97 2.05 2.09 2.14 2.10 2.08 2.02 1.94 1.98 2.02 1.96 1.97 1.91 1.71 1.59 1.60 1.66 1.75 1.82 1.80 1.60 1.45 1.51 1.46 1.61 1.65 1.57 1.52
0.71 0.73 0.79 0.82 0.84 0.92 1.01 1.10 1.14 1.21 1.46 1.61 1.67 1.67 1.71 1.78 1.92 2.03 2.03 1.94 1.89 1.84 1.79 1.79 1.71 1.67 1.66 1.66 1.49 1.44 1.39 1.37 1.35 1.45 1.56 1.53 1.43 1.42 1.45 1.38 1.26 1.20 1.21
0.65 0.71 0.81 0.84 0.86 0.90 0.97 0.97 1.04 1.16 1.30 1.38 1.46 1.48 1.57 1.67 1.75 1.81 1.85 1.86 1.81 1.63 1.48 1.40 1.39 1.40 1.47 1.60 1.43 1.35 1.30 1.34 1.25 1.24 1.24 1.24 1.17 1.23 1.22 1.13 1.01 0.95 0.95
0.59 0.67 0.79 0.83 0.87 0.91 0.92 0.96 1.05 1.19 1.35 1.48 1.56 1.63 1.69 1.76 1.73 1.77 1.80 1.75 1.65 1.56 1.52 1.44 1.37 1.36 1.38 1.52 1.34 1.24 1.22 1.28 1.24 1.23 1.26 1.35 1.19 1.08 0.94 0.90 0.91 0.82 0.78
0.60 0.65 0.77 0.90 0.92 0.95 1.02 1.11 1.19 1.27 1.37 1.44 1.52 1.57 1.61 1.67 1.71 1.78 1.73 1.71 1.68 1.62 1.53 1.45 1.40 1.40 1.36 1.37 1.21 1.09 1.02 1.05 1.06 1.00 1.00 1.11 1.12 0.93 0.78 0.78 0.77 0.72 0.69
0.51 0.65 0.76 0.86 0.96 1.06 1.19 1.25 1.24 1.27 1.37 1.49 1.55 1.55 1.59 1.60 1.61 1.65 1.63 1.61 1.58 1.51 1.42 1.39 1.38 1.41 1.38 1.24 1.10 0.97 0.89 0.91 0.90 0.98 0.99 1.09 1.12 0.90 0.76 0.66 0.62 0.58 0.52
0.51 0.58 0.68 0.83 0.92 1.06 1.20 1.29 1.34 1.43 1.46 1.55 1.66 1.70 1.67 1.65 1.71 1.80 1.83 1.73 1.65 1.57 1.46 1.36 1.23 1.19 1.24 1.24 1.09 0.92 0.84 0.87 0.87 1.04 1.24 1.24 1.16 0.98 0.80 0.73 0.71 0.60 0.51
0.67 0.70 0.78 0.84 0.91 1.00 1.11 1.22 1.33 1.43 1.56 1.62 1.66 1.72 1.73 1.73 1.76 1.82 1.79 1.72 1.63 1.53 1.42 1.31 1.22 1.21 1.23 1.21 1.16 1.04 0.93 0.91 0.93 1.05 1.22 1.30 1.31 1.21 1.05 0.96 0.87 0.70 0.66
0.84 0.85 0.90 0.93 0.96 1.02 1.11 1.26 1.36 1.44 1.53 1.63 1.67 1.66 1.65 1.69 1.71 1.68 1.63 1.53 1.44 1.38 1.29 1.18 1.14 1.14 1.15 1.18 1.16 1.04 0.92 0.86 0.87 0.99 1.20 1.36 1.46 1.48 1.43 1.29 1.16 1.03 0.91
0.90 0.89 0.92 0.93 0.95 1.02 1.13 1.21 1.37 1.53 1.62 1.60 1.51 1.46 1.38 1.38 1.40 1.37 1.37 1.41 1.26 1.25 1.17 1.10 1.02 0.97 1.00 1.01 0.92 0.83 0.77 0.76 0.80 0.89 1.09 1.32 1.50 1.56 1.64 1.61 1.50 1.30 1.13

GEFSMW_prec_meanprecacc_204.txt.gz
Total_Precipitation_Accumulation
1.86 2.16 2.53 2.88 3.09 3.25 3.36 3.67 3.88 3.59 3.10 2.67 2.16 1.93 1.84 1.66 1.48 1.34 1.25 1.27 1.22 1.33 1.40 1.15 1.38 1.23 1.20 1.27 1.31 1.43 1.43 1.31 1.29 1.63 1.80 1.46 1.14 1.14 1.02 1.01 1.16 1.22 1.25
1.39 1.48 1.70 2.03 2.12 2.34 2.65 3.03 3.27 3.11 2.57 2.32 2.10 1.95 1.85 1.72 1.67 1.52 1.44 1.28 1.24 1.29 1.19 1.38 1.23 1.26 1.34 1.38 1.45 1.53 1.52 1.37 1.31 1.60 1.91 1.67 1.63 1.48 0.85 0.95 1.09 1.19 1.39
1.02 1.02 1.10 1.27 1.58 2.05 2.20 2.26 2.52 2.72 2.45 2.31 2.22 2.11 2.00 1.81 1.84 1.73 1.56 1.27 1.17 1.20 1.22 1.22 1.23 1.40 1.22 1.43 1.59 1.55 1.60 1.57 1.43 1.44 1.69 1.73 1.68 1.47 1.15 0.94 0.94 1.10 1.41
0.70 0.84 0.85 0.91 1.11 1.43 1.72 1.97 2.22 2.39 2.33 2.20 1.99 1.83 1.64 1.53 1.52 1.54 1.55 1.43 1.32 1.16 1.15 1.15 1.29 1.42 1.24 1.51 1.25 1.30 1.51 1.61 1.47 1.41 1.30 1.32 1.46 1.55 1.49 1.26 1.04 1.05 1.20
0.40 0.57 0.68 0.77 0.79 0.99 1.38 1.80 2.14 2.38 2.28 1.99 1.81 1.79 1.69 1.64 1.57 1.50 1.65 1.53 1.47 1.27 1.11 1.17 1.28 1.33 1.25 1.32 1.33 1.57 1.48 1.44 1.42 1.43 1.45 1.49 1.40 1.20 1.28 1.37 1.35 1.26 1.02
0.27 0.36 0.43 0.53 0.67 0.80 1.04 1.32 1.65 1.94 1.98 1.83 1.73 1.75 1.77 1.75 1.62 1.42 1.39 1.31 1.32 1.28 1.22 1.28 1.31 1.26 1.19 1.23 1.26 1.38 1.41 1.47 1.53 1.40 1.29 1.38 1.32 1.21 1.26 1.12 1.11 1.21 0.94
0.22 0.32 0.40 0.42 0.51 0.60 0.73 0.92 1.21 1.42 1.60 1.67 1.68 1.66 1.76 1.75 1.57 1.40 1.34 1.34 1.19 1.12 1.16 1.26 1.38 1.32 1.32 1.29 1.37 1.36 1.31 1.38 1.43 1.31 1.19 1.15 1.05 1.14 1.24 1.26 1.09 1.06 0.84
0.19 0.30 0.40 0.41 0.42 0.46 0.59 0.74 0.95 1.16 1.36 1.48 1.54 1.55 1.51 1.41 1.39 1.46 1.37 1.32 1.27 1.20 1.17 1.24 1.24 1.26 1.29 1.29 1.54 1.35 1.24 1.27 1.25 1.13 1.31 1.26 0.97 0.99 1.13 1.26 1.36 1.27 1.05
0.30 0.36 0.46 0.48 0.37 0.38 0.47 0.55 0.73 0.91 1.06 1.27 1.37 1.30 1.32 1.23 1.23 1.28 1.27 1.22 1.30 1.31 1.27 1.18 1.15 1.20 1.29 1.37 1.45 1.36 1.36 1.39 1.24 1.16 1.28 1.21 1.01 0.98 0.95 1.15 1.42 1.57 1.42
0.41 0.45 0.41 0.44 0.37 0.35 0.42 0.50 0.65 0.76 0.85 1.03 1.10 1.03 1.21 1.21 1.29 1.26 1.18 1.11 1.10 1.13 1.19 1.17 1.11 1.16 1.24 1.34 1.43 1.46 1.56 1.63 1.48 1.35 1.35 1.26 1.14 1.18 1.03 1.09 1.31 1.52 1.65
0.43 0.44 0.40 0.42 0.39 0.37 0.41 0.48 0.63 0.72 0.77 0.90 0.94 1.00 1.06 1.09 1.15 1.18 1.19 1.16 1.11 1.10 1.14 1.19 1.21 1.22 1.26 1.36 1.41 1.38 1.58 1.72 1.74 1.57 1.46 1.42 1.40 1.39 1.26 1.27 1.35 1.43 1.62
0.29 0.35 0.40 0.46 0.35 0.35 0.40 0.44 0.52 0.58 0.63 0.79 0.92 0.97 1.06 1.07 1.06 1.10 1.27 1.29 1.25 1.24 1.26 1.30 1.37 1.34 1.32 1.39 1.38 1.29 1.36 1.55 1.77 1.95 1.99 1.77 1.67 1.63 1.49 1.46 1.41 1.42 1.55
0.31 0.40 0.47 0.43 0.36 0.36 0.40 0.44 0.50 0.55 0.59 0.69 0.81 0.92 0.99 1.06 1.13 1.25 1.40 1.51 1.47 1.46 1.52 1.56 1.50 1.48 1.49 1.47 1.43 1.42 1.45 1.54 1.62 1.80 1.99 1.98 2.01 1.82 1.74 1.66 1.57 1.52 1.48
0.32 0.36 0.51 0.50 0.42 0.40 0.44 0.45 0.53 0.61 0.71 0.85 0.97 1.03 1.17 1.28 1.35 1.38 1.51 1.57 1.63 1.68 1.70 1.73 1.68 1.65 1.67 1.65 1.61 1.57 1.55 1.59 1.59 1.61 1.67 1.77 1.99 1.96 1.91 1.80 1.76 1.75 1.74
0.37 0.48 0.58 0.63 0.59 0.56 0.54 0.56 0.68 0.79 0.97 1.15 1.20 1.21 1.32 1.44 1.59 1.76 1.81 1.85 1.89 1.88 1.98 1.93 1.83 1.81 1.83 1.69 1.74 1.86 1.86 1.89 1.73 1.63 1.56 1.55 1.73 1.80 1.81 1.66 1.70 1.82 1.89
0.42 0.49 0.65 0.75 0.79 0.82 0.80 0.84 0.94 1.11 1.34 1.57 1.65 1.75 1.84 1.94 2.01 2.05 2.06 2.13 2.16 2.12 2.05 1.97 1.97 1.95 1.80 1.90 1.92 1.83 1.86 2.02 2.02 1.89 1.80 1.68 1.58 1.57 1.61 1.67 1.71 1.75 1.76
0.59 0.62 0.76 0.84 0.93 0.96 0.97 1.07 1.16 1.36 1.54 1.67 1.72 1.84 1.94 2.03 2.09 2.13 2.17 2.13 2.11 2.05 1.97 2.00 2.05 2.00 2.01 1.96 1.76 1.64 1.64 1.69 1.79 1.85 1.83 1.64 1.49 1.55 1.50 1.65 1.69 1.62 1.56
0.73 0.75 0.82 0.88 0.90 1.00 1.11 1.20 1.24 1.30 1.53 1.67 1.73 1.73 1.75 1.82 1.96 2.08 2.06 1.97 1.93 1.90 1.85 1.84 1.76 1.72 1.71 1.72 1.54 1.48 1.43 1.41 1.38 1.48 1.59 1.56 1.46 1.45 1.48 1.42 1.30 1.24 1.26
0.70 0.75 0.85 0.89 0.93 0.97 1.04 1.03 1.08 1.19 1.33 1.41 1.49 1.53 1.62 1.73 1.81 1.88 1.93 1.94 1.89 1.71 1.56 1.47 1.46 1.46 1.53 1.66 1.48 1.39 1.34 1.40 1.30 1.28 1.29 1.30 1.22 1.28 1.27 1.17 1.06 1.00 1.01
0.64 0.70 0.83 0.87 0.92 0.95 0.96 0.99 1.07 1.21 1.38 1.52 1.60 1.69 1.77 1.85 1.81 1.85 1.90 1.87 1.79 1.70 1.65 1.53 1.44 1.42 1.43 1.58 1.39 1.29 1.26 1.32 1.29 1.29 1.32 1.41 1.25 1.13 0.99 0.94 0.95 0.87 0.83
0.62 0.67 0.79 0.92 0.93 0.96 1.03 1.12 1.21 1.30 1.43 1.51 1.59 1.64 1.70 1.76 1.79 1.85 1.81 1.80 1.78 1.72 1.61 1.50 1.45 1.44 1.41 1.42 1.26 1.16 1.07 1.10 1.10 1.05 1.06 1.16 1.18 0.99 0.83 0.81 0.80 0.75 0.72
0.54 0.68 0.77 0.88 0.97 1.07 1.19 1.26 1.26 1.30 1.40 1.55 1.62 1.61 1.65 1.66 1.68 1.73 1.71 1.70 1.67 1.59 1.49 1.45 1.43 1.46 1.43 1.28 1.15 1.04 0.97 0.99 0.97 1.05 1.07 1.17 1.21 0.98 0.83 0.70 0.65 0.61 0.54
0.54 0.60 0.69 0.84 0.93 1.07 1.21 1.31 1.36 1.45 1.48 1.58 1.69 1.73 1.70 1.68 1.73 1.84 1.88 1.78 1.69 1.62 1.51 1.40 1.27 1.24 1.29 1.29 1.14 0.99 0.92 0.94 0.93 1.12 1.35 1.35 1.27 1.08 0.86 0.77 0.75 0.62 0.53
0.69 0.71 0.79 0.85 0.92 1.01 1.12 1.24 1.35 1.44 1.58 1.64 1.69 1.75 1.77 1.77 1.79 1.85 1.84 1.76 1.66 1.57 1.47 1.36 1.27 1.25 1.27 1.25 1.21 1.10 1.00 1.00 1.01 1.14 1.33 1.42 1.41 1.27 1.09 0.99 0.90 0.72 0.67
0.85 0.86 0.91 0.94 0.97 1.03 1.13 1.28 1.38 1.45 1.55 1.66 1.70 1.70 1.69 1.74 1.76 1.74 1.70 1.60 1.51 1.44 1.36 1.25 1.21 1.20 1.20 1.24 1.22 1.10 1.00 0.94 0.98 1.12 1.35 1.49 1.57 1.55 1.48 1.33 1.20 1.05 0.92
0.91 0.91 0.94 0.95 0.97 1.04 1.16 1.23 1.39 1.55 1.64 1.63 1.55 1.49 1.41 1.41 1.44 1.43 1.44 1.49 1.35 1.35 1.25 1.17 1.08 1.02 1.05 1.08 0.99 0.90 0.86 0.87 0.93 1.02 1.21 1.43 1.60 1.65 1.72 1.68 1.56 1.35 1.17

GEFSMW_prec_meanprecacc_210.txt.gz
Total_Precipitation_Accumulation
1.86 2.16 2.54 2.89 3.09 3.25 3.36 3.67 3.89 3.60 3.10 2.67 2.17 1.95 1.86 1.68 1.49 1.36 1.26 1.31 1.25 1.37 1.46 1.21 1.45 1.30 1.26 1.34 1.38 1.50 1.50 1.36 1.33 1.67 1.85 1.49 1.15 1.15 1.04 1.02 1.18 1.25 1.29
1.39 1.48 1.70 2.03 2.12 2.34 2.65 3.03 3.27 3.11 2.58 2.33 2.11 1.96 1.87 1.74 1.68 1.54 1.46 1.31 1.28 1.33 1.24 1.45 1.29 1.32 1.41 1.45 1.51 1.60 1.59 1.42 1.35 1.65 1.97 1.72 1.67 1.50 0.86 0.96 1.10 1.20 1.42
1.02 1.02 1.10 1.27 1.58 2.05 2.21 2.26 2.52 2.72 2.46 2.32 2.23 2.12 2.01 1.82 1.85 1.75 1.59 1.29 1.19 1.23 1.26 1.27 1.28 1.46 1.28 1.50 1.68 1.62 1.67 1.64 1.49 1.50 1.77 1.81 1.77 1.54 1.19 0.96 0.96 1.14 1.45
0.70 0.84 0.85 0.91 1.11 1.43 1.72 1.98 2.22 2.40 2.34 2.21 2.00 1.84 1.65 1.54 1.54 1.56 1.57 1.45 1.33 1.17 1.17 1.18 1.33 1.48 1.29 1.59 1.33 1.36 1.59 1.70 1.54 1.48 1.35 1.37 1.51 1.63 1.56 1.30 1.07 1.08 1.24
0.40 0.57 0.68 0.77 0.79 0.99 1.38 1.81 2.16 2.40 2.29 2.00 1.83 1.82 1.71 1.66 1.59 1.52 1.69 1.56 1.48 1.28 1.12 1.19 1.31 1.37 1.29 1.37 1.40 1.64 1.56 1.51 1.49 1.52 1.53 1.57 1.47 1.26 1.34 1.43 1.40 1.30 1.04
0.27 0.36 0.43 0.53 0.67 0.81 1.06 1.38 1.72 1.97 1.99 1.84 1.75 1.80 1.82 1.78 1.64 1.45 1.44 1.35 1.36 1.31 1.23 1.30 1.35 1.30 1.24 1.29 1.32 1.45 1.48 1.55 1.61 1.48 1.37 1.47 1.39 1.28 1.32 1.18 1.17 1.26 0.97
0.22 0.32 0.40 0.43 0.53 0.62 0.79 1.03 1.29 1.44 1.60 1.68 1.71 1.69 1.80 1.80 1.61 1.43 1.37 1.38 1.24 1.16 1.19 1.29 1.43 1.37 1.36 1.34 1.43 1.42 1.37 1.46 1.51 1.39 1.27 1.23 1.11 1.20 1.30 1.33 1.15 1.11 0.88
0.20 0.30 0.41 0.43 0.44 0.48 0.64 0.79 0.97 1.17 1.37 1.49 1.55 1.57 1.52 1.42 1.41 1.48 1.39 1.34 1.31 1.25 1.20 1.27 1.28 1.31 1.34 1.34 1.60 1.40 1.29 1.33 1.32 1.21 1.39 1.32 1.03 1.06 1.18 1.32 1.42 1.32 1.10
0.31 0.36 0.46 0.48 0.38 0.39 0.49 0.56 0.75 0.93 1.07 1.28 1.38 1.30 1.32 1.23 1.24 1.29 1.28 1.24 1.34 1.35 1.29 1.20 1.18 1.24 1.34 1.43 1.52 1.42 1.41 1.45 1.30 1.22 1.35 1.27 1.07 1.03 1.01 1.20 1.47 1.62 1.47
0.41 0.45 0.42 0.44 0.37 0.36 0.43 0.51 0.66 0.77 0.87 1.04 1.12 1.04 1.23 1.23 1.31 1.27 1.19 1.14 1.14 1.17 1.22 1.20 1.14 1.19 1.27 1.38 1.48 1.51 1.61 1.69 1.54 1.41 1.40 1.31 1.18 1.22 1.08 1.13 1.36 1.57 1.69
0.43 0.44 0.40 0.42 0.39 0.38 0.42 0.48 0.63 0.73 0.79 0.92 0.96 1.02 1.09 1.12 1.17 1.19 1.20 1.18 1.15 1.13 1.17 1.21 1.23 1.25 1.29 1.39 1.45 1.41 1.62 1.76 1.79 1.61 1.50 1.45 1.44 1.43 1.30 1.32 1.39 1.47 1.66
0.29 0.35 0.40 0.46 0.35 0.36 0.40 0.45 0.53 0.59 0.65 0.81 0.95 0.99 1.09 1.10 1.08 1.12 1.29 1.31 1.28 1.27 1.29 1.32 1.40 1.37 1.35 1.42 1.42 1.34 1.41 1.60 1.80 1.99 2.03 1.82 1.72 1.68 1.53 1.50 1.45 1.47 1.59
0.31 0.41 0.47 0.43 0.36 0.36 0.40 0.45 0.52 0.57 0.62 0.72 0.84 0.96 1.03 1.10 1.18 1.30 1.45 1.54 1.49 1.48 1.54 1.58 1.52 1.51 1.52 1.50 1.46 1.45 1.49 1.58 1.66 1.85 2.03 2.03 2.06 1.86 1.79 1.70 1.61 1.56 1.51
0.32 0.37 0.51 0.50 0.42 0.41 0.45 0.47 0.55 0.65 0.75 0.93 1.03 1.09 1.25 1.38 1.45 1.46 1.57 1.61 1.64 1.69 1.71 1.74 1.69 1.66 1.70 1.67 1.63 1.59 1.58 1.62 1.62 1.64 1.70 1.81 2.04 2.00 1.96 1.84 1.81 1.79 1.78
0.38 0.49 0.60 0.64 0.61 0.58 0.57 0.59 0.71 0.83 1.03 1.24 1.29 1.30 1.40 1.52 1.66 1.83 1.87 1.88 1.90 1.89 1.99 1.95 1.85 1.83 1.85 1.71 1.76 1.88 1.87 1.91 1.76 1.67 1.60 1.58 1.77 1.85 1.86 1.69 1.74 1.87 1.93
0.43 0.49 0.65 0.76 0.80 0.84 0.83 0.87 0.99 1.18 1.44 1.71 1.80 1.86 1.92 2.01 2.08 2.13 2.12 2.18 2.19 2.14 2.06 1.98 1.99 1.98 1.81 1.92 1.95 1.85 1.89 2.04 2.04 1.91 1.82 1.70 1.61 1.60 1.65 1.70 1.74 1.79 1.80
0.60 0.64 0.78 0.86 0.96 0.99 1.02 1.12 1.21 1.42 1.62 1.76 1.82 1.91 1.99 2.07 2.13 2.17 2.21 2.17 2.17 2.10 2.00 2.03 2.08 2.02 2.04 1.99 1.78 1.66 1.66 1.71 1.81 1.87 1.85 1.65 1.51 1.58 1.54 1.69 1.72 1.64 1.59
0.75 0.77 0.85 0.91 0.95 1.05 1.17 1.27 1.30 1.34 1.56 1.72 1.78 1.77 1.78 1.84 1.97 2.09 2.08 1.99 1.97 1.95 1.93 1.94 1.86 1.78 1.75 1.76 1.57 1.51 1.46 1.42 1.39 1.50 1.61 1.58 1.49 1.49 1.53 1.47 1.33 1.26 1.28
0.72 0.77 0.88 0.92 0.96 1.01 1.09 1.07 1.12 1.22 1.35 1.42 1.51 1.54 1.63 1.74 1.83 1.91 1.96 1.97 1.92 1.75 1.63 1.56 1.53 1.51 1.56 1.68 1.50 1.41 1.36 1.41 1.32 1.31 1.31 1.32 1.24 1.31 1.32 1.22 1.10 1.03 1.03
0.66 0.73 0.84 0.89 0.94 0.97 0.99 1.02 1.10 1.24 1.41 1.54 1.62 1.70 1.79 1.88 1.86 1.91 1.97 1.94 1.86 1.81 1.76 1.59 1.47 1.44 1.45 1.59 1.41 1.31 1.28 1.34 1.32 1.32 1.35 1.44 1.27 1.16 1.03 0.97 0.98 0.89 0.86
0.64 0.69 0.80 0.93 0.95 0.98 1.05 1.16 1.26 1.35 1.48 1.56 1.62 1.66 1.73 1.80 1.84 1.93 1.87 1.85 1.82 1.75 1.65 1.53 1.47 1.46 1.43 1.43 1.28 1.18 1.10 1.12 1.13 1.08 1.08 1.19 1.20 1.01 0.86 0.84 0.83 0.78 0.75
0.55 0.69 0.79 0.89 0.98 1.08 1.21 1.29 1.28 1.32 1.43 1.59 1.66 1.67 1.71 1.72 1.73 1.78 1.75 1.72 1.69 1.61 1.52 1.47 1.46 1.48 1.44 1.30 1.17 1.06 1.00 1.02 1.00 1.08 1.10 1.20 1.24 1.02 0.87 0.74 0.68 0.65 0.59
0.55 0.61 0.70 0.85 0.94 1.09 1.23 1.33 1.38 1.47 1.50 1.59 1.71 1.76 1.73 1.71 1.76 1.86 1.89 1.79 1.71 1.63 1.52 1.42 1.30 1.27 1.32 1.32 1.19 1.02 0.96 0.99 0.97 1.15 1.39 1.39 1.33 1.14 0.92 0.84 0.82 0.70 0.59
0.69 0.72 0.80 0.87 0.94 1.03 1.15 1.26 1.37 1.46 1.59 1.65 1.70 1.77 1.78 1.79 1.82 1.88 1.85 1.78 1.68 1.58 1.49 1.38 1.29 1.28 1.30 1.28 1.25 1.14 1.04 1.04 1.05 1.19 1.38 1.47 1.48 1.36 1.19 1.10 1.01 0.81 0.74
0.86 0.87 0.91 0.96 0.99 1.07 1.16 1.30 1.40 1.46 1.56 1.67 1.72 1.71 1.71 1.76 1.79 1.76 1.71 1.61 1.52 1.46 1.39 1.27 1.22 1.21 1.22 1.27 1.27 1.15 1.04 0.99 1.03 1.17 1.40 1.55 1.64 1.63 1.56 1.42 1.31 1.16 1.02
0.93 0.93 0.95 0.97 1.00 1.07 1.18 1.26 1.41 1.56 1.65 1.65 1.56 1.51 1.43 1.43 1.45 1.44 1.46 1.50 1.36 1.36 1.27 1.19 1.10 1.03 1.08 1.11 1.04 0.95 0.90 0.91 0.98 1.07 1.25 1.49 1.66 1.72 1.80 1.77 1.66 1.47 1.29

GEFSMW_prec_meanprecacc_216.txt.gz
Total_Precipitation_Accumulation
1.86 2.16 2.54 2.89 3.09 3.25 3.36 3.68 3.89 3.61 3.12 2.69 2.19 1.97 1.90 1.71 1.51 1.38 1.28 1.33 1.27 1.39 1.50 1.27 1.55 1.38 1.35 1.41 1.45 1.59 1.58 1.43 1.39 1.73 1.92 1.53 1.17 1.17 1.06 1.05 1.23 1.31 1.34
1.39 1.48 1.70 2.03 2.12 2.34 2.65 3.03 3.28 3.12 2.59 2.35 2.13 1.99 1.91 1.77 1.71 1.56 1.49 1.34 1.30 1.35 1.27 1.50 1.35 1.39 1.50 1.53 1.60 1.69 1.69 1.50 1.42 1.73 2.09 1.84 1.76 1.56 0.88 0.99 1.13 1.23 1.45
1.02 1.02 1.10 1.27 1.58 2.05 2.21 2.27 2.53 2.74 2.48 2.35 2.26 2.14 2.05 1.86 1.90 1.80 1.64 1.33 1.21 1.25 1.29 1.30 1.32 1.50 1.34 1.59 1.78 1.72 1.76 1.74 1.58 1.57 1.87 1.93 1.91 1.64 1.23 0.99 0.98 1.15 1.47
0.70 0.84 0.85 0.91 1.11 1.44 1.73 1.98 2.24 2.42 2.36 2.24 2.04 1.86 1.68 1.59 1.59 1.61 1.63 1.49 1.36 1.19 1.20 1.21 1.36 1.52 1.34 1.68 1.39 1.45 1.69 1.81 1.65 1.57 1.43 1.46 1.63 1.76 1.68 1.39 1.12 1.12 1.28
0.40 0.57 0.68 0.77 0.79 0.99 1.39 1.82 2.18 2.42 2.32 2.03 1.86 1.85 1.74 1.70 1.62 1.55 1.73 1.62 1.53 1.32 1.14 1.22 1.35 1.42 1.34 1.44 1.47 1.72 1.63 1.60 1.58 1.60 1.62 1.67 1.56 1.36 1.47 1.56 1.50 1.37 1.09
0.28 0.37 0.43 0.53 0.68 0.81 1.07 1.39 1.74 1.99 2.02 1.86 1.76 1.81 1.84 1.81 1.67 1.48 1.48 1.40 1.41 1.36 1.26 1.33 1.39 1.34 1.28 1.35 1.38 1.52 1.54 1.63 1.70 1.57 1.47 1.57 1.49 1.38 1.43 1.29 1.27 1.34 1.02
0.24 0.33 0.40 0.43 0.53 0.63 0.80 1.04 1.30 1.44 1.61 1.69 1.71 1.70 1.82 1.82 1.64 1.45 1.40 1.42 1.28 1.19 1.22 1.33 1.47 1.40 1.41 1.39 1.49 1.48 1.44 1.53 1.59 1.46 1.36 1.31 1.18 1.27 1.39 1.42 1.24 1.19 0.93
0.20 0.31 0.41 0.43 0.44 0.49 0.66 0.81 0.98 1.18 1.38 1.49 1.56 1.58 1.54 1.44 1.42 1.51 1.41 1.37 1.35 1.27 1.23 1.30 1.32 1.34 1.38 1.38 1.67 1.49 1.37 1.40 1.38 1.27 1.47 1.39 1.09 1.12 1.25 1.41 1.52 1.42 1.18
0.31 0.36 0.46 0.48 0.39 0.40 0.50 0.57 0.76 0.95 1.09 1.29 1.39 1.31 1.34 1.25 1.26 1.32 1.31 1.26 1.37 1.38 1.31 1.22 1.21 1.28 1.38 1.48 1.59 1.49 1.48 1.53 1.36 1.29 1.42 1.33 1.12 1.08 1.06 1.27 1.55 1.71 1.56
0.42 0.45 0.42 0.45 0.39 0.37 0.44 0.51 0.66 0.78 0.88 1.06 1.13 1.06 1.24 1.24 1.33 1.30 1.22 1.17 1.18 1.22 1.26 1.23 1.18 1.24 1.32 1.43 1.54 1.57 1.68 1.76 1.60 1.48 1.47 1.38 1.22 1.27 1.12 1.18 1.42 1.64 1.77
0.44 0.45 0.41 0.43 0.40 0.39 0.43 0.49 0.63 0.73 0.79 0.93 0.98 1.03 1.11 1.14 1.20 1.24 1.25 1.23 1.20 1.18 1.21 1.25 1.27 1.29 1.33 1.43 1.51 1.47 1.69 1.82 1.84 1.67 1.57 1.51 1.50 1.49 1.35 1.38 1.46 1.54 1.73
0.29 0.36 0.40 0.46 0.36 0.37 0.41 0.46 0.53 0.60 0.66 0.82 0.97 1.03 1.13 1.15 1.12 1.16 1.34 1.35 1.32 1.30 1.32 1.36 1.44 1.41 1.40 1.48 1.47 1.38 1.47 1.65 1.85 2.05 2.09 1.88 1.79 1.74 1.58 1.56 1.54 1.55 1.68
0.33 0.42 0.48 0.44 0.37 0.37 0.41 0.45 0.53 0.58 0.62 0.73 0.87 1.00 1.08 1.15 1.22 1.35 1.50 1.59 1.53 1.52 1.58 1.62 1.56 1.55 1.57 1.55 1.50 1.49 1.54 1.64 1.72 1.90 2.08 2.09 2.14 1.92 1.84 1.75 1.67 1.63 1.58
0.34 0.39 0.53 0.52 0.43 0.41 0.45 0.47 0.56 0.65 0.76 0.94 1.06 1.15 1.31 1.45 1.52 1.53 1.62 1.66 1.70 1.76 1.78 1.79 1.74 1.71 1.74 1.72 1.67 1.63 1.62 1.68 1.68 1.69 1.75 1.87 2.10 2.07 2.03 1.90 1.88 1.87 1.86
0.39 0.50 0.61 0.66 0.63 0.59 0.58 0.60 0.71 0.84 1.04 1.27 1.32 1.35 1.45 1.57 1.71 1.87 1.91 1.92 1.93 1.91 2.02 1.99 1.90 1.87 1.88 1.73 1.80 1.92 1.92 1.97 1.82 1.73 1.67 1.65 1.85 1.93 1.93 1.75 1.81 1.94 2.00
0.44 0.51 0.67 0.77 0.83 0.87 0.86 0.90 1.00 1.19 1.46 1.73 1.82 1.89 1.95 2.04 2.11 2.16 2.15 2.21 2.22 2.18 2.10 2.01 2.02 2.00 1.83 1.94 1.98 1.89 1.95 2.11 2.10 1.98 1.90 1.77 1.68 1.68 1.72 1.76 1.80 1.85 1.86
0.61 0.65 0.79 0.89 1.00 1.04 1.07 1.17 1.26 1.45 1.65 1.79 1.85 1.94 2.03 2.11 2.17 2.21 2.23 2.20 2.20 2.13 2.04 2.07 2.11 2.04 2.07 2.03 1.81 1.68 1.70 1.76 1.86 1.94 1.92 1.71 1.57 1.66 1.61 1.75 1.77 1.67 1.61
0.76 0.78 0.86 0.95 1.00 1.11 1.23 1.33 1.36 1.40 1.62 1.77 1.84 1.83 1.84 1.91 2.03 2.15 2.13 2.03 2.00 1.99 1.96 1.96 1.88 1.81 1.79 1.80 1.59 1.53 1.48 1.46 1.43 1.55 1.67 1.64 1.57 1.56 1.59 1.53 1.39 1.30 1.31
0.73 0.78 0.89 0.95 1.01 1.06 1.13 1.11 1.15 1.26 1.39 1.47 1.56 1.60 1.70 1.82 1.91 1.99 2.03 2.03 1.97 1.80 1.67 1.59 1.57 1.55 1.60 1.72 1.53 1.44 1.40 1.44 1.34 1.34 1.35 1.37 1.30 1.38 1.38 1.30 1.17 1.08 1.07
0.68 0.75 0.88 0.93 0.98 1.02 1.03 1.06 1.14 1.29 1.46 1.59 1.68 1.76 1.86 1.96 1.96 2.03 2.10 2.06 1.96 1.89 1.82 1.65 1.52 1.48 1.48 1.64 1.45 1.34 1.31 1.37 1.35 1.36 1.39 1.48 1.32 1.22 1.09 1.03 1.04 0.94 0.90
0.68 0.73 0.84 0.98 1.00 1.04 1.11 1.22 1.32 1.43 1.56 1.64 1.69 1.73 1.80 1.88 1.94 2.06 2.02 2.02 1.98 1.89 1.76 1.62 1.52 1.50 1.47 1.48 1.31 1.21 1.12 1.15 1.16 1.12 1.13 1.24 1.26 1.06 0.90 0.88 0.87 0.82 0.82
0.59 0.73 0.83 0.94 1.04 1.15 1.29 1.39 1.40 1.43 1.53 1.70 1.76 1.73 1.77 1.79 1.81 1.86 1.84 1.83 1.79 1.71 1.62 1.56 1.53 1.53 1.49 1.34 1.19 1.08 1.02 1.04 1.03 1.12 1.15 1.26 1.31 1.08 0.93 0.79 0.72 0.71 0.65
0.57 0.65 0.74 0.91 1.02 1.17 1.31 1.43 1.51 1.60 1.62 1.69 1.80 1.85 1.82 1.78 1.84 1.94 1.95 1.84 1.75 1.67 1.56 1.46 1.33 1.30 1.35 1.34 1.20 1.03 0.97 1.00 0.99 1.18 1.42 1.44 1.39 1.20 0.97 0.88 0.87 0.76 0.64
0.72 0.74 0.82 0.89 0.99 1.11 1.24 1.39 1.47 1.55 1.69 1.73 1.75 1.83 1.87 1.89 1.92 1.95 1.91 1.81 1.70 1.61 1.51 1.40 1.32 1.30 1.32 1.30 1.26 1.15 1.06 1.06 1.07 1.20 1.40 1.51 1.52 1.40 1.23 1.14 1.05 0.85 0.78
0.87 0.89 0.93 0.97 1.01 1.10 1.20 1.38 1.47 1.52 1.62 1.75 1.78 1.76 1.76 1.80 1.85 1.83 1.78 1.66 1.57 1.50 1.43 1.30 1.25 1.24 1.24 1.29 1.29 1.16 1.06 1.01 1.05 1.19 1.42 1.57 1.67 1.66 1.59 1.46 1.34 1.19 1.05
0.96 0.95 0.97 0.98 1.01 1.09 1.20 1.29 1.45 1.63 1.72 1.73 1.64 1.56 1.48 1.47 1.49 1.48 1.49 1.53 1.39 1.39 1.30 1.21 1.12 1.05 1.09 1.13 1.06 0.96 0.91 0.93 1.01 1.10 1.27 1.52 1.71 1.77 1.84 1.81 1.69 1.50 1.32

GEFSMW_prec_meanprecacc_222.txt.gz
Total_Precipitation_Accumulation
1.86 2.16 2.54 2.89 3.10 3.25 3.36 3.68 3.90 3.61 3.12 2.70 2.19 1.99 1.93 1.74 1.54 1.41 1.30 1.35 1.28 1.40 1.51 1.29 1.57 1.41 1.38 1.45 1.48 1.61 1.61 1.46 1.42 1.78 1.96 1.57 1.21 1.23 1.11 1.10 1.29 1.36 1.41
1.40 1.49 1.71 2.04 2.13 2.34 2.66 3.03 3.28 3.12 2.59 2.36 2.14 2.00 1.93 1.80 1.74 1.59 1.52 1.35 1.31 1.36 1.28 1.50 1.36 1.40 1.52 1.56 1.63 1.72 1.73 1.54 1.47 1.78 2.14 1.88 1.81 1.61 0.93 1.05 1.19 1.28 1.51
1.05 1.04 1.12 1.29 1.59 2.06 2.21 2.27 2.54 2.74 2.49 2.36 2.27 2.16 2.07 1.88 1.92 1.83 1.66 1.34 1.22 1.25 1.30 1.31 1.33 1.52 1.35 1.61 1.80 1.74 1.80 1.78 1.62 1.62 1.92 1.99 1.96 1.68 1.29 1.05 1.03 1.20 1.53
0.73 0.87 0.89 0.95 1.14 1.47 1.75 2.00 2.26 2.44 2.38 2.26 2.05 1.87 1.69 1.60 1.60 1.63 1.64 1.50 1.37 1.21 1.21 1.21 1.37 1.53 1.36 1.70 1.41 1.46 1.70 1.84 1.68 1.61 1.47 1.50 1.67 1.80 1.72 1.44 1.16 1.16 1.32
0.43 0.60 0.71 0.80 0.84 1.04 1.44 1.86 2.21 2.44 2.33 2.04 1.87 1.86 1.75 1.70 1.63 1.56 1.74 1.62 1.54 1.34 1.16 1.23 1.37 1.43 1.35 1.46 1.49 1.73 1.64 1.61 1.60 1.62 1.65 1.70 1.59 1.40 1.51 1.59 1.53 1.41 1.14
0.32 0.41 0.46 0.56 0.70 0.85 1.11 1.45 1.78 2.02 2.04 1.88 1.78 1.82 1.85 1.82 1.68 1.49 1.49 1.41 1.42 1.37 1.28 1.34 1.40 1.35 1.30 1.37 1.40 1.53 1.55 1.64 1.72 1.59 1.49 1.60 1.51 1.40 1.46 1.32 1.31 1.38 1.06
0.28 0.40 0.44 0.46 0.54 0.64 0.81 1.06 1.33 1.49 1.69 1.79 1.78 1.73 1.83 1.83 1.64 1.46 1.41 1.43 1.31 1.24 1.25 1.35 1.49 1.42 1.43 1.41 1.50 1.51 1.46 1.54 1.61 1.48 1.37 1.34 1.21 1.30 1.43 1.47 1.29 1.22 0.96
0.23 0.37 0.47 0.46 0.46 0.50 0.67 0.81 1.00 1.22 1.45 1.62 1.67 1.65 1.58 1.46 1.45 1.54 1.44 1.39 1.37 1.32 1.24 1.33 1.34 1.36 1.41 1.40 1.69 1.52 1.41 1.43 1.41 1.29 1.49 1.41 1.11 1.14 1.28 1.45 1.58 1.46 1.20
0.33 0.40 0.50 0.52 0.41 0.42 0.52 0.58 0.78 0.96 1.11 1.33 1.45 1.39 1.42 1.33 1.32 1.37 1.35 1.29 1.40 1.41 1.33 1.25 1.24 1.30 1.40 1.51 1.62 1.52 1.51 1.55 1.39 1.33 1.46 1.35 1.14 1.11 1.09 1.32 1.60 1.75 1.59
0.46 0.49 0.47 0.50 0.43 0.41 0.48 0.57 0.71 0.82 0.90 1.08 1.15 1.08 1.28 1.29 1.40 1.37 1.28 1.21 1.21 1.25 1.29 1.28 1.22 1.28 1.35 1.47 1.58 1.60 1.72 1.79 1.63 1.52 1.52 1.41 1.26 1.31 1.16 1.22 1.46 1.68 1.83
0.52 0.51 0.46 0.49 0.45 0.45 0.50 0.56 0.69 0.77 0.83 0.96 1.00 1.06 1.15 1.19 1.25 1.30 1.31 1.28 1.22 1.21 1.25 1.29 1.31 1.32 1.36 1.47 1.55 1.50 1.73 1.86 1.88 1.71 1.61 1.55 1.55 1.54 1.40 1.42 1.50 1.58 1.79
0.37 0.44 0.46 0.52 0.42 0.43 0.48 0.52 0.59 0.65 0.70 0.86 1.01 1.06 1.17 1.19 1.17 1.22 1.41 1.41 1.36 1.35 1.37 1.41 1.49 1.46 1.44 1.51 1.51 1.42 1.51 1.70 1.89 2.08 2.13 1.92 1.84 1.78 1.62 1.60 1.58 1.60 1.73
0.38 0.47 0.54 0.50 0.43 0.44 0.48 0.53 0.58 0.62 0.66 0.76 0.90 1.04 1.13 1.20 1.29 1.44 1.60 1.68 1.61 1.59 1.63 1.67 1.61 1.60 1.61 1.58 1.52 1.51 1.57 1.68 1.75 1.94 2.12 2.13 2.20 1.96 1.89 1.80 1.73 1.69 1.65
0.38 0.43 0.58 0.58 0.49 0.46 0.51 0.54 0.64 0.70 0.79 0.98 1.11 1.20 1.36 1.50 1.58 1.60 1.70 1.73 1.76 1.80 1.81 1.82 1.77 1.73 1.76 1.74 1.68 1.65 1.65 1.71 1.72 1.73 1.78 1.91 2.15 2.12 2.10 1.97 1.95 1.95 1.94
0.42 0.54 0.67 0.73 0.69 0.64 0.61 0.64 0.78 0.90 1.10 1.31 1.36 1.39 1.48 1.60 1.74 1.91 1.95 1.96 1.98 1.94 2.04 2.00 1.91 1.89 1.89 1.75 1.81 1.95 1.96 2.01 1.85 1.75 1.69 1.68 1.89 1.99 2.00 1.81 1.87 2.01 2.06
0.48 0.55 0.75 0.92 0.95 0.93 0.91 0.95 1.06 1.25 1.51 1.78 1.87 1.94 2.01 2.08 2.14 2.18 2.18 2.25 2.26 2.21 2.12 2.03 2.04 2.02 1.84 1.96 2.00 1.91 1.97 2.13 2.12 2.00 1.93 1.80 1.73 1.73 1.77 1.81 1.84 1.90 1.91
0.64 0.68 0.84 0.98 1.09 1.10 1.11 1.22 1.31 1.49 1.71 1.88 1.96 2.05 2.12 2.20 2.25 2.27 2.30 2.25 2.24 2.19 2.09 2.10 2.14 2.08 2.10 2.06 1.84 1.71 1.72 1.78 1.88 1.96 1.95 1.73 1.60 1.70 1.64 1.78 1.81 1.71 1.65
0.78 0.80 0.90 1.00 1.05 1.15 1.26 1.36 1.40 1.45 1.68 1.85 1.93 1.96 2.00 2.05 2.17 2.28 2.23 2.14 2.12 2.10 2.08 2.07 1.97 1.89 1.86 1.87 1.66 1.60 1.54 1.51 1.48 1.59 1.71 1.68 1.60 1.59 1.63 1.57 1.41 1.33 1.34
0.75 0.80 0.93 0.99 1.06 1.11 1.16 1.13 1.18 1.29 1.43 1.51 1.61 1.67 1.78 1.94 2.07 2.15 2.19 2.19 2.12 1.97 1.86 1.78 1.75 1.71 1.74 1.85 1.63 1.53 1.47 1.51 1.41 1.40 1.40 1.41 1.33 1.42 1.42 1.34 1.20 1.12 1.11
0.71 0.78 0.91 0.97 1.02 1.07 1.08 1.10 1.18 1.35 1.53 1.65 1.73 1.82 1.92 2.04 2.05 2.14 2.24 2.24 2.17 2.12 2.07 1.92 1.84 1.78 1.72 1.82 1.57 1.43 1.38 1.43 1.40 1.41 1.43 1.52 1.36 1.27 1.14 1.08 1.09 0.98 0.94
0.71 0.76 0.87 1.01 1.04 1.08 1.16 1.29 1.41 1.52 1.65 1.71 1.75 1.80 1.86 1.95 2.03 2.16 2.14 2.17 2.15 2.07 1.95 1.83 1.73 1.70 1.65 1.60 1.39 1.26 1.16 1.18 1.19 1.16 1.16 1.28 1.30 1.10 0.95 0.93 0.92 0.87 0.87
0.63 0.78 0.88 0.99 1.09 1.20 1.34 1.45 1.47 1.53 1.63 1.77 1.84 1.83 1.88 1.92 1.94 1.99 1.96 1.95 1.92 1.85 1.78 1.74 1.71 1.70 1.64 1.45 1.26 1.12 1.05 1.06 1.05 1.14 1.17 1.29 1.34 1.11 0.96 0.84 0.76 0.75 0.69
0.68 0.76 0.86 0.99 1.09 1.23 1.36 1.48 1.55 1.66 1.72 1.81 1.90 1.98 1.99 1.99 2.03 2.11 2.13 2.01 1.90 1.81 1.74 1.67 1.53 1.47 1.49 1.46 1.28 1.09 1.01 1.03 1.01 1.20 1.44 1.46 1.41 1.23 1.00 0.91 0.90 0.80 0.68
0.86 0.86 0.91 0.96 1.07 1.19 1.31 1.44 1.52 1.61 1.75 1.82 1.84 1.92 2.01 2.07 2.10 2.11 2.06 1.94 1.82 1.73 1.65 1.55 1.46 1.45 1.45 1.40 1.33 1.21 1.10 1.09 1.09 1.22 1.41 1.52 1.54 1.42 1.25 1.16 1.07 0.87 0.80
0.93 0.94 0.98 1.01 1.05 1.16 1.26 1.43 1.53 1.58 1.67 1.80 1.84 1.83 1.84 1.89 1.94 1.95 1.89 1.77 1.68 1.60 1.52 1.41 1.37 1.36 1.35 1.38 1.36 1.22 1.11 1.05 1.09 1.22 1.44 1.60 1.69 1.68 1.61 1.47 1.36 1.21 1.07
0.99 0.98 1.00 1.03 1.07 1.15 1.27 1.34 1.50 1.68 1.77 1.78 1.71 1.63 1.54 1.53 1.55 1.52 1.54 1.59 1.47 1.45 1.35 1.26 1.18 1.15 1.19 1.21 1.13 1.03 0.99 1.00 1.08 1.15 1.32 1.55 1.74 1.80 1.87 1.83 1.71 1.51 1.33

GEFSMW_prec_meanprecacc_228.txt.gz
Total_Precipitation_Accumulation
1.86 2.17 2.55 2.90 3.11 3.27 3.37 3.68 3.90 3.62 3.14 2.72 2.23 2.02 1.96 1.77 1.57 1.44 1.32 1.38 1.32 1.45 1.58 1.36 1.62 1.44 1.41 1.48 1.52 1.64 1.64 1.49 1.46 1.80 1.98 1.58 1.22 1.23 1.12 1.11 1.30 1.38 1.44
1.40 1.50 1.73 2.06 2.15 2.36 2.67 3.05 3.30 3.15 2.61 2.38 2.17 2.03 1.96 1.82 1.76 1.62 1.54 1.37 1.33 1.40 1.34 1.58 1.44 1.45 1.55 1.59 1.67 1.77 1.77 1.58 1.51 1.81 2.17 1.92 1.83 1.62 0.94 1.06 1.21 1.29 1.53
1.06 1.05 1.15 1.33 1.63 2.12 2.28 2.31 2.56 2.77 2.51 2.38 2.30 2.18 2.08 1.89 1.94 1.84 1.67 1.35 1.23 1.27 1.33 1.35 1.38 1.56 1.40 1.65 1.85 1.79 1.84 1.82 1.65 1.65 1.96 2.04 1.99 1.70 1.29 1.05 1.04 1.21 1.54
0.74 0.89 0.91 0.97 1.17 1.51 1.81 2.05 2.28 2.47 2.40 2.28 2.07 1.90 1.71 1.61 1.61 1.64 1.65 1.51 1.39 1.23 1.23 1.24 1.40 1.57 1.40 1.74 1.44 1.49 1.73 1.87 1.70 1.63 1.50 1.54 1.70 1.82 1.73 1.45 1.16 1.17 1.33
0.44 0.61 0.72 0.81 0.85 1.06 1.46 1.90 2.22 2.46 2.35 2.06 1.89 1.87 1.77 1.72 1.64 1.57 1.75 1.63 1.55 1.35 1.18 1.26 1.39 1.46 1.39 1.50 1.53 1.76 1.68 1.65 1.63 1.65 1.68 1.75 1.63 1.43 1.53 1.60 1.54 1.42 1.15
0.32 0.42 0.47 0.57 0.72 0.86 1.13 1.49 1.79 2.03 2.05 1.91 1.83 1.86 1.87 1.83 1.69 1.50 1.49 1.41 1.43 1.39 1.30 1.36 1.42 1.38 1.34 1.41 1.44 1.57 1.59 1.68 1.77 1.62 1.52 1.64 1.55 1.44 1.49 1.34 1.32 1.39 1.07
0.29 0.41 0.45 0.47 0.56 0.65 0.85 1.13 1.33 1.50 1.70 1.80 1.80 1.77 1.86 1.84 1.65 1.47 1.42 1.45 1.32 1.25 1.26 1.36 1.52 1.46 1.48 1.46 1.57 1.57 1.52 1.60 1.65 1.51 1.40 1.36 1.23 1.34 1.46 1.49 1.31 1.24 0.96
0.24 0.38 0.48 0.47 0.47 0.51 0.68 0.85 1.02 1.23 1.47 1.63 1.69 1.67 1.60 1.48 1.46 1.55 1.45 1.41 1.40 1.34 1.26 1.35 1.37 1.41 1.46 1.46 1.76 1.59 1.47 1.50 1.47 1.34 1.52 1.44 1.15 1.18 1.31 1.48 1.62 1.48 1.21
0.34 0.40 0.51 0.52 0.42 0.44 0.54 0.62 0.81 1.00 1.13 1.35 1.47 1.41 1.44 1.34 1.33 1.39 1.36 1.32 1.43 1.44 1.37 1.29 1.29 1.36 1.47 1.59 1.70 1.60 1.59 1.62 1.45 1.38 1.49 1.39 1.18 1.15 1.12 1.35 1.63 1.78 1.61
0.47 0.50 0.48 0.51 0.44 0.43 0.51 0.60 0.76 0.87 0.93 1.10 1.18 1.11 1.31 1.32 1.42 1.39 1.31 1.25 1.26 1.30 1.36 1.36 1.31 1.39 1.46 1.59 1.70 1.71 1.80 1.84 1.67 1.56 1.55 1.43 1.29 1.34 1.20 1.26 1.51 1.71 1.85
0.53 0.52 0.48 0.50 0.47 0.47 0.53 0.59 0.75 0.84 0.88 1.01 1.06 1.11 1.19 1.23 1.28 1.33 1.34 1.33 1.30 1.32 1.34 1.39 1.42 1.42 1.45 1.59 1.66 1.57 1.77 1.89 1.92 1.74 1.64 1.57 1.57 1.56 1.44 1.46 1.55 1.61 1.82
0.39 0.47 0.50 0.56 0.45 0.45 0.50 0.56 0.66 0.73 0.77 0.93 1.06 1.10 1.22 1.24 1.21 1.25 1.45 1.48 1.45 1.43 1.43 1.46 1.55 1.53 1.54 1.63 1.58 1.46 1.53 1.72 1.91 2.10 2.15 1.94 1.85 1.79 1.64 1.63 1.62 1.64 1.78
0.40 0.50 0.58 0.56 0.48 0.47 0.51 0.57 0.65 0.69 0.73 0.82 0.95 1.09 1.18 1.26 1.35 1.48 1.66 1.76 1.69 1.64 1.67 1.70 1.65 1.65 1.66 1.62 1.54 1.53 1.58 1.69 1.77 1.95 2.13 2.14 2.22 1.99 1.92 1.84 1.76 1.73 1.70
0.39 0.45 0.62 0.64 0.55 0.50 0.54 0.58 0.68 0.75 0.85 1.03 1.15 1.23 1.39 1.55 1.64 1.66 1.76 1.79 1.80 1.84 1.84 1.85 1.79 1.75 1.78 1.75 1.70 1.67 1.66 1.72 1.73 1.75 1.80 1.92 2.17 2.15 2.13 2.00 1.98 2.00 1.98
0.43 0.55 0.68 0.77 0.75 0.69 0.64 0.67 0.81 0.94 1.14 1.35 1.40 1.42 1.52 1.64 1.79 1.96 2.01 2.02 2.03 1.97 2.07 2.03 1.94 1.91 1.91 1.77 1.83 1.97 1.97 2.02 1.87 1.77 1.71 1.70 1.92 2.02 2.03 1.84 1.90 2.05 2.10
0.49 0.56 0.75 0.94 0.99 0.98 0.95 0.98 1.09 1.28 1.55 1.83 1.92 2.00 2.07 2.14 2.21 2.26 2.26 2.32 2.32 2.26 2.16 2.07 2.07 2.06 1.87 1.98 2.02 1.94 2.00 2.15 2.15 2.03 1.96 1.83 1.76 1.76 1.81 1.85 1.89 1.94 1.94
0.65 0.69 0.85 0.99 1.11 1.13 1.15 1.25 1.33 1.52 1.75 1.92 2.01 2.12 2.20 2.28 2.33 2.35 2.37 2.32 2.31 2.26 2.16 2.16 2.20 2.13 2.16 2.12 1.90 1.77 1.77 1.83 1.92 2.00 1.99 1.77 1.64 1.76 1.69 1.84 1.86 1.75 1.68
0.79 0.82 0.92 1.02 1.08 1.18 1.30 1.39 1.43 1.49 1.73 1.90 2.00 2.03 2.07 2.12 2.25 2.39 2.36 2.25 2.22 2.20 2.18 2.16 2.06 1.99 1.95 1.96 1.75 1.69 1.62 1.59 1.57 1.67 1.77 1.74 1.65 1.64 1.69 1.63 1.46 1.35 1.36
0.77 0.83 0.95 1.01 1.09 1.15 1.20 1.17 1.22 1.34 1.48 1.56 1.67 1.72 1.84 2.01 2.14 2.23 2.27 2.28 2.22 2.07 1.97 1.89 1.84 1.81 1.85 1.97 1.76 1.66 1.58 1.62 1.50 1.48 1.47 1.47 1.39 1.47 1.49 1.39 1.24 1.14 1.13
0.74 0.80 0.93 0.99 1.06 1.10 1.12 1.15 1.23 1.40 1.58 1.71 1.78 1.86 1.95 2.08 2.10 2.20 2.29 2.29 2.23 2.18 2.14 2.00 1.93 1.90 1.86 1.97 1.72 1.58 1.50 1.52 1.47 1.47 1.49 1.58 1.41 1.31 1.19 1.11 1.12 1.00 0.96
0.76 0.79 0.90 1.03 1.08 1.13 1.27 1.36 1.45 1.57 1.70 1.76 1.79 1.81 1.88 1.98 2.07 2.21 2.19 2.23 2.21 2.14 2.01 1.87 1.78 1.75 1.73 1.71 1.52 1.39 1.28 1.26 1.25 1.20 1.20 1.31 1.34 1.14 0.98 0.96 0.95 0.90 0.91
0.67 0.81 0.91 1.02 1.13 1.25 1.41 1.52 1.54 1.59 1.68 1.82 1.88 1.86 1.91 1.95 1.98 2.03 2.00 2.00 1.99 1.91 1.84 1.80 1.76 1.74 1.68 1.52 1.34 1.21 1.13 1.13 1.10 1.18 1.21 1.32 1.38 1.15 1.00 0.86 0.79 0.79 0.74
0.72 0.80 0.90 1.03 1.13 1.26 1.41 1.54 1.61 1.71 1.78 1.86 1.95 2.01 2.03 2.02 2.07 2.15 2.17 2.06 1.96 1.88 1.80 1.72 1.57 1.52 1.54 1.52 1.37 1.17 1.08 1.09 1.05 1.23 1.47 1.49 1.44 1.26 1.03 0.95 0.93 0.83 0.71
0.91 0.91 0.96 1.00 1.10 1.23 1.38 1.51 1.57 1.65 1.80 1.87 1.89 1.98 2.07 2.13 2.15 2.16 2.11 2.00 1.88 1.78 1.70 1.60 1.53 1.52 1.52 1.46 1.39 1.28 1.17 1.17 1.16 1.27 1.46 1.56 1.57 1.46 1.30 1.21 1.11 0.91 0.84
0.97 0.98 1.02 1.05 1.10 1.20 1.30 1.50 1.60 1.64 1.72 1.85 1.90 1.89 1.89 1.95 2.00 2.01 1.95 1.83 1.73 1.65 1.57 1.47 1.44 1.43 1.41 1.44 1.42 1.28 1.19 1.14 1.19 1.33 1.54 1.68 1.76 1.75 1.67 1.54 1.42 1.26 1.12
1.02 1.01 1.04 1.07 1.11 1.20 1.32 1.40 1.58 1.77 1.85 1.84 1.77 1.69 1.60 1.58 1.60 1.58 1.60 1.64 1.52 1.51 1.40 1.31 1.25 1.23 1.25 1.27 1.20 1.10 1.06 1.09 1.17 1.25 1.41 1.65 1.83 1.89 1.95 1.92 1.79 1.57 1.38

GEFSMW_prec_meanprecacc_234.txt.gz
Total_Precipitation_Accumulation
1.86 2.17 2.55 2.90 3.12 3.28 3.38 3.69 3.91 3.63 3.16 2.74 2.24 2.05 2.00 1.80 1.59 1.46 1.34 1.42 1.39 1.56 1.73 1.48 1.74 1.54 1.50 1.56 1.58 1.71 1.71 1.55 1.52 1.87 2.03 1.61 1.23 1.24 1.13 1.12 1.31 1.39 1.44
1.41 1.50 1.73 2.07 2.16 2.37 2.68 3.05 3.31 3.15 2.62 2.39 2.19 2.05 1.99 1.84 1.79 1.65 1.56 1.39 1.36 1.45 1.41 1.68 1.56 1.57 1.65 1.66 1.74 1.84 1.84 1.65 1.59 1.88 2.23 1.96 1.87 1.65 0.96 1.07 1.22 1.30 1.53
1.06 1.06 1.16 1.33 1.64 2.13 2.29 2.32 2.57 2.77 2.51 2.39 2.31 2.19 2.10 1.91 1.96 1.87 1.71 1.38 1.25 1.30 1.37 1.41 1.46 1.67 1.50 1.75 1.93 1.86 1.92 1.91 1.74 1.74 2.06 2.12 2.06 1.75 1.34 1.08 1.06 1.22 1.55
0.74 0.89 0.91 0.98 1.18 1.52 1.82 2.05 2.29 2.48 2.40 2.29 2.08 1.91 1.73 1.64 1.63 1.65 1.67 1.53 1.41 1.26 1.27 1.29 1.47 1.65 1.47 1.83 1.53 1.57 1.82 1.97 1.79 1.72 1.59 1.64 1.79 1.91 1.81 1.51 1.19 1.18 1.34
0.44 0.61 0.72 0.81 0.85 1.06 1.46 1.90 2.23 2.47 2.36 2.07 1.90 1.89 1.78 1.73 1.65 1.58 1.77 1.66 1.58 1.38 1.20 1.30 1.44 1.52 1.44 1.56 1.59 1.84 1.77 1.75 1.73 1.74 1.76 1.83 1.71 1.52 1.62 1.69 1.60 1.47 1.17
0.32 0.42 0.47 0.57 0.72 0.86 1.13 1.49 1.80 2.04 2.06 1.92 1.84 1.88 1.88 1.84 1.70 1.51 1.51 1.44 1.46 1.41 1.32 1.39 1.47 1.43 1.38 1.46 1.51 1.64 1.67 1.76 1.85 1.70 1.60 1.73 1.64 1.55 1.58 1.42 1.39 1.44 1.09
0.29 0.41 0.46 0.48 0.56 0.65 0.85 1.13 1.34 1.50 1.70 1.80 1.81 1.78 1.87 1.86 1.67 1.48 1.44 1.46 1.33 1.27 1.29 1.40 1.57 1.51 1.53 1.51 1.63 1.64 1.60 1.68 1.74 1.61 1.48 1.45 1.34 1.44 1.55 1.57 1.38 1.29 1.01
0.24 0.38 0.48 0.48 0.47 0.52 0.70 0.85 1.02 1.23 1.47 1.63 1.69 1.67 1.61 1.50 1.47 1.56 1.46 1.42 1.41 1.35 1.28 1.38 1.42 1.46 1.51 1.51 1.82 1.64 1.54 1.59 1.57 1.42 1.61 1.53 1.23 1.26 1.38 1.56 1.71 1.54 1.27
0.34 0.40 0.51 0.53 0.43 0.45 0.54 0.62 0.81 1.00 1.14 1.35 1.47 1.42 1.45 1.36 1.35 1.40 1.37 1.34 1.45 1.46 1.39 1.31 1.31 1.40 1.51 1.63 1.76 1.65 1.64 1.69 1.51 1.43 1.56 1.45 1.25 1.23 1.19 1.42 1.73 1.87 1.68
0.47 0.50 0.49 0.51 0.45 0.44 0.51 0.60 0.77 0.87 0.94 1.11 1.19 1.12 1.32 1.34 1.44 1.41 1.33 1.27 1.27 1.32 1.37 1.37 1.33 1.41 1.49 1.63 1.75 1.76 1.86 1.90 1.71 1.60 1.60 1.49 1.34 1.40 1.26 1.33 1.59 1.78 1.92
0.53 0.52 0.48 0.51 0.48 0.48 0.53 0.60 0.75 0.85 0.89 1.03 1.08 1.13 1.21 1.25 1.30 1.34 1.36 1.34 1.31 1.34 1.37 1.40 1.43 1.44 1.48 1.63 1.71 1.61 1.81 1.93 1.95 1.77 1.67 1.61 1.62 1.62 1.49 1.51 1.60 1.66 1.86
0.39 0.47 0.50 0.56 0.47 0.49 0.52 0.56 0.66 0.74 0.79 0.95 1.09 1.14 1.25 1.27 1.24 1.27 1.47 1.50 1.47 1.46 1.45 1.48 1.56 1.54 1.56 1.66 1.61 1.48 1.55 1.74 1.94 2.13 2.19 1.97 1.89 1.85 1.70 1.68 1.66 1.68 1.82
0.40 0.50 0.58 0.56 0.49 0.49 0.53 0.57 0.65 0.70 0.75 0.85 0.99 1.16 1.24 1.32 1.39 1.52 1.70 1.79 1.72 1.67 1.69 1.72 1.66 1.66 1.68 1.63 1.56 1.55 1.60 1.71 1.79 1.98 2.16 2.17 2.25 2.03 1.97 1.88 1.80 1.76 1.72
0.39 0.45 0.62 0.65 0.55 0.51 0.54 0.59 0.69 0.77 0.87 1.06 1.19 1.29 1.47 1.61 1.68 1.69 1.78 1.81 1.83 1.86 1.86 1.87 1.80 1.77 1.80 1.77 1.72 1.69 1.69 1.75 1.75 1.77 1.83 1.95 2.20 2.19 2.18 2.04 2.02 2.03 2.01
0.44 0.55 0.69 0.78 0.75 0.69 0.64 0.68 0.82 0.96 1.16 1.38 1.43 1.45 1.56 1.67 1.81 1.98 2.02 2.03 2.04 1.99 2.08 2.04 1.95 1.92 1.93 1.78 1.85 2.00 2.00 2.05 1.90 1.81 1.74 1.72 1.95 2.05 2.06 1.86 1.92 2.08 2.13
0.49 0.56 0.75 0.94 0.99 0.99 0.95 0.99 1.10 1.31 1.58 1.86 1.95 2.03 2.12 2.19 2.25 2.29 2.28 2.34 2.33 2.27 2.17 2.08 2.08 2.07 1.89 2.00 2.05 1.97 2.03 2.19 2.18 2.06 1.98 1.86 1.79 1.78 1.83 1.87 1.91 1.97 1.97
0.65 0.70 0.85 0.99 1.12 1.13 1.15 1.26 1.35 1.55 1.78 1.96 2.05 2.17 2.25 2.36 2.43 2.44 2.42 2.35 2.33 2.28 2.18 2.17 2.21 2.14 2.18 2.14 1.91 1.78 1.79 1.85 1.95 2.03 2.02 1.81 1.67 1.78 1.72 1.87 1.89 1.78 1.71
0.79 0.82 0.92 1.03 1.09 1.19 1.30 1.41 1.46 1.52 1.76 1.94 2.04 2.08 2.14 2.22 2.34 2.46 2.40 2.28 2.24 2.21 2.18 2.17 2.07 2.00 1.97 1.97 1.75 1.70 1.64 1.62 1.59 1.71 1.81 1.77 1.68 1.67 1.73 1.67 1.50 1.38 1.38
0.77 0.83 0.95 1.02 1.11 1.17 1.22 1.19 1.26 1.38 1.52 1.59 1.69 1.75 1.88 2.05 2.18 2.27 2.29 2.30 2.24 2.08 1.98 1.89 1.85 1.81 1.85 1.97 1.76 1.67 1.60 1.64 1.53 1.51 1.51 1.51 1.42 1.51 1.53 1.44 1.28 1.19 1.16
0.75 0.82 0.95 1.02 1.10 1.14 1.15 1.19 1.27 1.44 1.61 1.73 1.80 1.87 1.97 2.10 2.14 2.22 2.31 2.31 2.25 2.20 2.15 2.02 1.95 1.91 1.87 1.99 1.75 1.62 1.54 1.58 1.54 1.52 1.54 1.62 1.45 1.34 1.23 1.15 1.17 1.05 0.99
0.78 0.82 0.94 1.08 1.14 1.19 1.33 1.42 1.51 1.63 1.74 1.78 1.81 1.83 1.90 2.00 2.10 2.24 2.23 2.26 2.24 2.16 2.03 1.90 1.82 1.79 1.75 1.75 1.57 1.46 1.35 1.36 1.36 1.30 1.26 1.36 1.38 1.18 1.02 1.00 0.99 0.94 0.95
0.70 0.85 0.95 1.07 1.19 1.32 1.48 1.59 1.61 1.64 1.73 1.85 1.90 1.88 1.94 1.98 2.02 2.08 2.07 2.06 2.05 1.97 1.90 1.87 1.82 1.78 1.72 1.55 1.38 1.25 1.17 1.19 1.19 1.30 1.31 1.39 1.44 1.20 1.04 0.90 0.83 0.83 0.79
0.76 0.85 0.95 1.08 1.18 1.32 1.46 1.60 1.71 1.77 1.82 1.89 1.97 2.04 2.07 2.07 2.12 2.21 2.24 2.13 2.03 1.96 1.88 1.82 1.67 1.60 1.61 1.59 1.42 1.21 1.12 1.12 1.10 1.32 1.58 1.58 1.52 1.32 1.08 0.98 0.96 0.87 0.76
0.95 0.95 1.00 1.04 1.14 1.25 1.41 1.57 1.70 1.71 1.83 1.90 1.92 2.01 2.11 2.18 2.20 2.21 2.15 2.04 1.90 1.82 1.75 1.66 1.59 1.58 1.59 1.52 1.44 1.32 1.21 1.20 1.19 1.31 1.53 1.64 1.65 1.53 1.36 1.26 1.15 0.94 0.87
1.00 1.01 1.05 1.08 1.13 1.23 1.33 1.55 1.72 1.72 1.77 1.89 1.94 1.92 1.93 1.99 2.04 2.05 1.99 1.86 1.76 1.67 1.61 1.51 1.48 1.47 1.45 1.48 1.45 1.31 1.21 1.17 1.21 1.36 1.59 1.73 1.83 1.84 1.76 1.61 1.49 1.34 1.19
1.04 1.03 1.05 1.09 1.14 1.24 1.35 1.45 1.69 1.88 1.93 1.90 1.81 1.73 1.64 1.62 1.63 1.61 1.63 1.68 1.55 1.54 1.43 1.34 1.28 1.25 1.27 1.29 1.21 1.11 1.07 1.11 1.19 1.28 1.45 1.69 1.87 1.94 2.01 2.00 1.88 1.65 1.46

GEFSMW_prec_meanprecacc_240.txt.gz
Total_Precipitation_Accumulation
1.87 2.17 2.55 2.90 3.12 3.28 3.38 3.69 3.92 3.66 3.19 2.78 2.29 2.10 2.05 1.84 1.62 1.47 1.35 1.43 1.40 1.58 1.77 1.54 1.80 1.60 1.57 1.63 1.65 1.80 1.80 1.65 1.61 1.96 2.12 1.67 1.26 1.26 1.14 1.13 1.34 1.41 1.45
1.43 1.51 1.73 2.07 2.16 2.38 2.68 3.06 3.32 3.17 2.64 2.42 2.23 2.10 2.04 1.88 1.81 1.67 1.60 1.41 1.39 1.47 1.43 1.73 1.60 1.62 1.74 1.75 1.80 1.91 1.93 1.74 1.66 1.97 2.33 2.06 1.96 1.70 0.98 1.08 1.23 1.31 1.54
1.09 1.08 1.17 1.33 1.65 2.13 2.29 2.32 2.57 2.78 2.52 2.41 2.33 2.22 2.15 1.96 1.99 1.91 1.76 1.42 1.28 1.31 1.39 1.44 1.49 1.70 1.54 1.81 2.00 1.92 2.01 2.01 1.82 1.83 2.17 2.25 2.20 1.84 1.39 1.10 1.08 1.24 1.58
0.75 0.91 0.92 0.98 1.19 1.53 1.82 2.05 2.30 2.48 2.42 2.30 2.11 1.94 1.76 1.67 1.66 1.68 1.70 1.56 1.44 1.28 1.30 1.32 1.51 1.69 1.51 1.89 1.58 1.64 1.90 2.05 1.88 1.79 1.67 1.72 1.88 2.03 1.91 1.56 1.22 1.21 1.38
0.45 0.62 0.73 0.82 0.86 1.07 1.47 1.90 2.24 2.48 2.38 2.09 1.92 1.92 1.80 1.76 1.67 1.61 1.80 1.69 1.61 1.41 1.23 1.33 1.48 1.57 1.49 1.61 1.64 1.92 1.85 1.82 1.81 1.81 1.83 1.89 1.78 1.60 1.73 1.78 1.65 1.50 1.18
0.32 0.42 0.47 0.58 0.73 0.87 1.14 1.50 1.81 2.05 2.08 1.94 1.86 1.90 1.91 1.87 1.74 1.56 1.56 1.47 1.48 1.44 1.34 1.42 1.52 1.48 1.43 1.53 1.57 1.70 1.72 1.82 1.91 1.76 1.66 1.80 1.73 1.64 1.67 1.51 1.47 1.50 1.12
0.29 0.41 0.46 0.48 0.57 0.66 0.86 1.14 1.35 1.51 1.72 1.82 1.82 1.79 1.90 1.89 1.69 1.50 1.46 1.48 1.35 1.29 1.32 1.44 1.64 1.57 1.58 1.58 1.70 1.70 1.66 1.74 1.79 1.66 1.54 1.51 1.39 1.49 1.60 1.65 1.45 1.35 1.04
0.24 0.39 0.48 0.48 0.48 0.52 0.70 0.86 1.03 1.24 1.48 1.64 1.71 1.69 1.63 1.52 1.49 1.59 1.48 1.44 1.43 1.37 1.30 1.41 1.46 1.49 1.56 1.56 1.88 1.69 1.59 1.64 1.62 1.46 1.66 1.57 1.27 1.30 1.43 1.62 1.77 1.61 1.33
0.34 0.41 0.51 0.53 0.43 0.45 0.55 0.63 0.82 1.01 1.15 1.36 1.49 1.44 1.47 1.39 1.38 1.44 1.40 1.36 1.47 1.48 1.41 1.34 1.35 1.42 1.54 1.68 1.81 1.70 1.69 1.75 1.56 1.48 1.62 1.50 1.31 1.26 1.22 1.47 1.78 1.96 1.76
0.47 0.50 0.49 0.51 0.45 0.44 0.52 0.61 0.78 0.89 0.96 1.13 1.22 1.15 1.35 1.39 1.49 1.45 1.37 1.31 1.31 1.35 1.41 1.41 1.37 1.45 1.53 1.67 1.79 1.81 1.90 1.94 1.77 1.66 1.67 1.55 1.39 1.46 1.31 1.38 1.65 1.85 1.99
0.53 0.53 0.48 0.51 0.48 0.48 0.53 0.60 0.76 0.86 0.91 1.05 1.10 1.15 1.24 1.29 1.35 1.38 1.40 1.38 1.35 1.37 1.40 1.44 1.47 1.48 1.52 1.67 1.76 1.65 1.85 1.97 2.01 1.83 1.73 1.67 1.68 1.68 1.54 1.56 1.65 1.71 1.92
0.39 0.47 0.50 0.57 0.48 0.49 0.52 0.56 0.66 0.74 0.80 0.97 1.11 1.16 1.28 1.31 1.27 1.31 1.51 1.55 1.51 1.48 1.47 1.51 1.60 1.58 1.60 1.70 1.65 1.52 1.61 1.80 2.01 2.19 2.24 2.02 1.95 1.92 1.75 1.72 1.70 1.73 1.88
0.41 0.51 0.59 0.58 0.50 0.49 0.53 0.58 0.66 0.72 0.76 0.88 1.01 1.18 1.27 1.34 1.43 1.56 1.73 1.82 1.75 1.69 1.72 1.76 1.71 1.71 1.73 1.68 1.61 1.60 1.65 1.77 1.85 2.05 2.23 2.22 2.30 2.09 2.02 1.92 1.83 1.79 1.77
0.40 0.45 0.65 0.68 0.58 0.52 0.55 0.59 0.71 0.78 0.89 1.08 1.21 1.31 1.49 1.63 1.72 1.72 1.81 1.84 1.85 1.89 1.89 1.91 1.84 1.80 1.84 1.80 1.75 1.72 1.72 1.79 1.80 1.83 1.89 2.01 2.25 2.24 2.23 2.08 2.06 2.07 2.06
0.44 0.55 0.70 0.84 0.82 0.74 0.67 0.69 0.85 0.98 1.18 1.40 1.44 1.47 1.58 1.70 1.85 2.02 2.06 2.07 2.07 2.01 2.11 2.07 1.98 1.94 1.95 1.80 1.87 2.03 2.03 2.10 1.96 1.87 1.81 1.79 2.03 2.12 2.12 1.91 1.98 2.13 2.18
0.50 0.57 0.76 0.96 1.05 1.05 1.00 1.01 1.12 1.34 1.61 1.88 1.97 2.06 2.15 2.23 2.29 2.34 2.34 2.39 2.37 2.30 2.20 2.10 2.10 2.09 1.90 2.01 2.06 1.98 2.04 2.22 2.22 2.11 2.04 1.93 1.88 1.87 1.90 1.93 1.97 2.03 2.03
0.66 0.70 0.86 1.02 1.16 1.19 1.22 1.32 1.40 1.59 1.82 2.00 2.10 2.21 2.29 2.40 2.49 2.51 2.50 2.41 2.37 2.31 2.20 2.19 2.22 2.16 2.19 2.15 1.92 1.78 1.79 1.87 1.98 2.06 2.05 1.84 1.71 1.84 1.78 1.94 1.97 1.83 1.76
0.84 0.84 0.94 1.05 1.11 1.23 1.35 1.47 1.51 1.56 1.81 2.00 2.12 2.16 2.23 2.31 2.45 2.58 2.49 2.34 2.28 2.23 2.20 2.19 2.09 2.03 1.98 1.98 1.76 1.71 1.65 1.63 1.61 1.74 1.84 1.81 1.72 1.72 1.77 1.73 1.56 1.44 1.44
0.86 0.89 1.01 1.10 1.14 1.19 1.24 1.23 1.30 1.42 1.56 1.67 1.80 1.87 2.01 2.18 2.32 2.38 2.37 2.35 2.28 2.11 2.01 1.92 1.88 1.84 1.88 2.00 1.78 1.70 1.62 1.66 1.56 1.55 1.55 1.55 1.46 1.54 1.57 1.48 1.33 1.24 1.21
0.87 0.96 1.09 1.16 1.14 1.16 1.18 1.23 1.33 1.49 1.68 1.81 1.89 1.97 2.06 2.19 2.23 2.31 2.39 2.37 2.29 2.24 2.19 2.06 1.99 1.94 1.91 2.04 1.81 1.67 1.58 1.64 1.61 1.60 1.61 1.67 1.48 1.38 1.26 1.20 1.21 1.08 1.02
0.83 0.91 1.06 1.19 1.20 1.22 1.36 1.47 1.58 1.71 1.83 1.89 1.91 1.93 1.99 2.09 2.17 2.32 2.30 2.33 2.31 2.24 2.11 1.97 1.88 1.85 1.83 1.82 1.62 1.49 1.38 1.40 1.41 1.34 1.30 1.38 1.40 1.20 1.05 1.03 1.02 0.97 0.98
0.74 0.88 0.99 1.13 1.26 1.38 1.53 1.66 1.69 1.73 1.81 1.95 2.00 1.98 2.05 2.08 2.11 2.17 2.15 2.15 2.13 2.04 1.96 1.93 1.90 1.89 1.81 1.61 1.42 1.27 1.19 1.20 1.22 1.33 1.34 1.42 1.46 1.22 1.07 0.93 0.86 0.87 0.83
0.81 0.88 0.98 1.12 1.23 1.37 1.51 1.66 1.78 1.84 1.89 1.95 2.04 2.11 2.15 2.17 2.21 2.30 2.31 2.19 2.09 2.02 1.93 1.86 1.72 1.67 1.70 1.65 1.46 1.24 1.14 1.15 1.12 1.34 1.61 1.63 1.58 1.37 1.12 1.03 1.01 0.92 0.80
1.00 0.99 1.03 1.09 1.20 1.31 1.47 1.64 1.77 1.78 1.87 1.94 1.97 2.06 2.18 2.26 2.31 2.31 2.24 2.10 1.95 1.87 1.79 1.70 1.62 1.61 1.63 1.57 1.48 1.35 1.24 1.22 1.21 1.32 1.54 1.67 1.69 1.59 1.42 1.32 1.23 1.01 0.92
1.04 1.06 1.09 1.12 1.18 1.28 1.38 1.60 1.78 1.79 1.81 1.93 1.98 1.96 1.97 2.03 2.09 2.11 2.05 1.91 1.80 1.72 1.65 1.55 1.52 1.50 1.48 1.50 1.48 1.34 1.24 1.19 1.23 1.37 1.60 1.74 1.85 1.88 1.82 1.69 1.57 1.42 1.26
1.07 1.06 1.08 1.11 1.18 1.28 1.40 1.50 1.74 1.95 1.99 1.96 1.86 1.77 1.67 1.65 1.67 1.65 1.69 1.75 1.62 1.60 1.47 1.38 1.30 1.27 1.30 1.30 1.22 1.12 1.09 1.13 1.21 1.29 1.46 1.70 1.89 1.96 2.05 2.06 1.95 1.73 1.53

GEFSMW_prec_meanprecacc_246.txt.gz
Total_Precipitation_Accumulation
1.90 2.20 2.57 2.91 3.13 3.29 3.39 3.70 3.93 3.67 3.20 2.79 2.30 2.11 2.06 1.86 1.63 1.49 1.37 1.45 1.41 1.59 1.78 1.55 1.81 1.60 1.58 1.65 1.68 1.82 1.83 1.69 1.65 1.99 2.15 1.70 1.31 1.31 1.20 1.18 1.40 1.46 1.49
1.49 1.58 1.77 2.09 2.18 2.41 2.72 3.09 3.33 3.18 2.65 2.43 2.23 2.10 2.04 1.89 1.83 1.68 1.60 1.42 1.40 1.49 1.44 1.73 1.61 1.62 1.74 1.76 1.82 1.94 1.95 1.75 1.69 2.02 2.38 2.10 1.99 1.77 1.06 1.13 1.29 1.38 1.60
1.21 1.25 1.23 1.39 1.71 2.23 2.42 2.36 2.60 2.79 2.53 2.42 2.34 2.23 2.16 1.96 2.00 1.92 1.78 1.43 1.29 1.32 1.40 1.45 1.49 1.71 1.55 1.82 2.01 1.95 2.03 2.03 1.86 1.87 2.24 2.29 2.23 1.89 1.45 1.16 1.14 1.30 1.65
0.82 0.98 0.97 1.06 1.25 1.58 1.86 2.08 2.32 2.49 2.43 2.32 2.11 1.95 1.77 1.67 1.67 1.70 1.71 1.57 1.45 1.30 1.31 1.33 1.52 1.70 1.53 1.91 1.60 1.69 1.94 2.09 1.92 1.84 1.70 1.76 1.93 2.07 1.95 1.59 1.26 1.25 1.43
0.48 0.66 0.77 0.86 0.89 1.09 1.49 1.92 2.26 2.50 2.39 2.09 1.92 1.92 1.81 1.77 1.69 1.62 1.82 1.71 1.62 1.43 1.24 1.35 1.52 1.60 1.52 1.64 1.69 1.98 1.90 1.86 1.84 1.85 1.87 1.93 1.82 1.65 1.77 1.81 1.67 1.52 1.20
0.35 0.45 0.53 0.65 0.77 0.90 1.16 1.52 1.82 2.07 2.09 1.95 1.86 1.90 1.92 1.88 1.75 1.57 1.57 1.49 1.49 1.45 1.36 1.43 1.54 1.52 1.47 1.57 1.62 1.77 1.77 1.86 1.94 1.80 1.70 1.84 1.76 1.67 1.71 1.54 1.48 1.50 1.12
0.30 0.42 0.49 0.58 0.65 0.70 0.88 1.16 1.36 1.52 1.73 1.83 1.83 1.80 1.90 1.90 1.70 1.51 1.47 1.49 1.36 1.31 1.34 1.46 1.67 1.60 1.61 1.62 1.75 1.75 1.70 1.78 1.83 1.69 1.57 1.53 1.42 1.52 1.64 1.69 1.47 1.35 1.05
0.25 0.39 0.49 0.52 0.52 0.54 0.71 0.88 1.05 1.26 1.50 1.65 1.71 1.69 1.64 1.52 1.49 1.60 1.49 1.45 1.44 1.39 1.32 1.44 1.49 1.53 1.60 1.61 1.94 1.74 1.62 1.68 1.65 1.49 1.69 1.61 1.31 1.34 1.47 1.66 1.81 1.63 1.33
0.36 0.41 0.52 0.54 0.44 0.46 0.56 0.64 0.84 1.03 1.17 1.38 1.50 1.44 1.48 1.39 1.39 1.46 1.43 1.38 1.49 1.49 1.43 1.37 1.38 1.47 1.61 1.75 1.88 1.76 1.75 1.79 1.60 1.52 1.66 1.54 1.35 1.31 1.28 1.52 1.83 2.01 1.80
0.48 0.51 0.50 0.53 0.46 0.45 0.55 0.64 0.80 0.91 0.98 1.15 1.23 1.16 1.36 1.41 1.52 1.49 1.40 1.34 1.34 1.38 1.44 1.44 1.41 1.49 1.58 1.73 1.86 1.86 1.95 1.99 1.81 1.70 1.71 1.59 1.44 1.50 1.35 1.42 1.69 1.90 2.03
0.55 0.54 0.50 0.53 0.50 0.50 0.56 0.62 0.78 0.88 0.93 1.07 1.12 1.18 1.26 1.33 1.40 1.43 1.43 1.42 1.39 1.40 1.43 1.47 1.51 1.51 1.55 1.71 1.81 1.72 1.92 2.03 2.07 1.89 1.80 1.72 1.71 1.71 1.57 1.59 1.69 1.75 1.97
0.41 0.49 0.52 0.59 0.51 0.52 0.55 0.60 0.71 0.80 0.87 1.04 1.18 1.22 1.33 1.36 1.34 1.36 1.56 1.59 1.56 1.53 1.52 1.55 1.64 1.62 1.64 1.74 1.70 1.59 1.68 1.87 2.06 2.24 2.30 2.07 1.99 1.95 1.79 1.76 1.74 1.76 1.92
0.43 0.53 0.61 0.60 0.54 0.54 0.59 0.62 0.70 0.78 0.85 0.96 1.10 1.26 1.33 1.38 1.46 1.59 1.76 1.87 1.79 1.74 1.76 1.80 1.75 1.75 1.77 1.72 1.65 1.65 1.70 1.82 1.89 2.08 2.26 2.26 2.35 2.12 2.06 1.96 1.87 1.83 1.81
0.42 0.47 0.66 0.70 0.60 0.56 0.60 0.64 0.75 0.84 0.95 1.13 1.26 1.36 1.54 1.67 1.75 1.75 1.84 1.87 1.88 1.92 1.92 1.94 1.88 1.84 1.87 1.84 1.79 1.76 1.75 1.81 1.82 1.85 1.91 2.04 2.30 2.28 2.27 2.12 2.10 2.12 2.10
0.48 0.58 0.72 0.86 0.84 0.78 0.71 0.75 0.91 1.06 1.26 1.46 1.48 1.51 1.61 1.73 1.88 2.05 2.10 2.10 2.09 2.04 2.14 2.10 2.01 1.98 1.98 1.83 1.90 2.06 2.05 2.11 1.96 1.88 1.82 1.81 2.05 2.15 2.16 1.94 2.01 2.18 2.22
0.58 0.63 0.80 0.97 1.07 1.09 1.08 1.12 1.25 1.47 1.72 1.96 2.03 2.11 2.19 2.27 2.34 2.40 2.40 2.44 2.41 2.33 2.23 2.12 2.12 2.11 1.92 2.03 2.09 2.00 2.05 2.23 2.23 2.12 2.05 1.94 1.90 1.89 1.92 1.96 2.00 2.07 2.07
0.75 0.78 0.92 1.04 1.18 1.22 1.28 1.43 1.59 1.78 1.97 2.09 2.16 2.26 2.34 2.45 2.54 2.57 2.57 2.47 2.42 2.36 2.24 2.22 2.24 2.18 2.21 2.17 1.94 1.79 1.80 1.88 1.99 2.07 2.06 1.85 1.73 1.86 1.80 1.96 1.99 1.86 1.79
0.88 0.89 0.99 1.09 1.17 1.30 1.45 1.60 1.68 1.81 2.09 2.23 2.27 2.27 2.30 2.39 2.53 2.65 2.56 2.39 2.33 2.29 2.25 2.22 2.11 2.05 2.00 2.00 1.78 1.73 1.67 1.64 1.62 1.74 1.85 1.82 1.74 1.75 1.81 1.77 1.58 1.46 1.46
0.90 0.95 1.07 1.16 1.27 1.32 1.36 1.36 1.44 1.59 1.79 1.98 2.09 2.07 2.15 2.31 2.43 2.47 2.45 2.42 2.34 2.17 2.05 1.96 1.91 1.86 1.91 2.03 1.82 1.73 1.64 1.68 1.57 1.56 1.56 1.57 1.48 1.57 1.61 1.52 1.37 1.26 1.24
0.91 1.01 1.14 1.21 1.21 1.23 1.24 1.29 1.39 1.58 1.77 1.95 2.10 2.22 2.29 2.39 2.40 2.45 2.55 2.53 2.44 2.37 2.29 2.13 2.03 1.99 1.96 2.09 1.86 1.71 1.60 1.66 1.62 1.61 1.62 1.69 1.51 1.41 1.30 1.23 1.24 1.11 1.04
0.91 1.00 1.14 1.26 1.25 1.26 1.40 1.51 1.62 1.77 1.91 1.97 2.04 2.14 2.25 2.37 2.51 2.66 2.62 2.59 2.52 2.42 2.25 2.07 1.96 1.93 1.90 1.89 1.68 1.54 1.40 1.41 1.42 1.35 1.31 1.39 1.41 1.22 1.06 1.05 1.04 0.99 0.99
0.81 0.97 1.08 1.21 1.34 1.45 1.59 1.71 1.74 1.79 1.90 2.05 2.12 2.15 2.26 2.28 2.34 2.41 2.38 2.35 2.36 2.31 2.25 2.22 2.16 2.09 1.95 1.71 1.49 1.33 1.23 1.23 1.23 1.34 1.35 1.42 1.47 1.23 1.08 0.94 0.86 0.88 0.84
0.88 0.96 1.05 1.17 1.28 1.44 1.60 1.74 1.83 1.90 1.97 2.04 2.13 2.24 2.27 2.29 2.35 2.44 2.46 2.38 2.30 2.24 2.14 2.05 1.89 1.85 1.86 1.77 1.53 1.29 1.18 1.17 1.13 1.35 1.62 1.64 1.58 1.38 1.13 1.03 1.02 0.93 0.81
1.06 1.06 1.11 1.18 1.27 1.37 1.52 1.69 1.81 1.85 1.96 2.02 2.05 2.16 2.27 2.37 2.44 2.44 2.37 2.23 2.07 1.99 1.92 1.81 1.72 1.72 1.74 1.65 1.55 1.40 1.28 1.27 1.24 1.34 1.56 1.68 1.70 1.60 1.43 1.33 1.24 1.03 0.95
1.10 1.12 1.18 1.24 1.27 1.34 1.42 1.64 1.83 1.89 1.91 2.02 2.06 2.03 2.04 2.09 2.16 2.20 2.18 2.05 1.92 1.81 1.74 1.65 1.62 1.60 1.58 1.58 1.55 1.38 1.27 1.23 1.27 1.40 1.63 1.76 1.87 1.89 1.82 1.69 1.59 1.46 1.32
1.16 1.17 1.18 1.21 1.26 1.35 1.48 1.57 1.80 2.01 2.05 2.03 1.92 1.82 1.71 1.68 1.69 1.69 1.75 1.85 1.75 1.71 1.56 1.46 1.40 1.36 1.39 1.38 1.28 1.16 1.12 1.16 1.24 1.32 1.49 1.72 1.91 1.97 2.06 2.06 1.96 1.75 1.56

GEFSMW_prec_meanprecacc_252.txt.gz
Total_Precipitation_Accumulation
1.91 2.20 2.58 2.93 3.14 3.30 3.40 3.71 3.94 3.69 3.23 2.81 2.32 2.14 2.08 1.88 1.65 1.49 1.38 1.46 1.42 1.60 1.79 1.56 1.82 1.61 1.60 1.69 1.72 1.87 1.86 1.71 1.67 2.01 2.16 1.71 1.33 1.34 1.22 1.19 1.41 1.47 1.51
1.50 1.59 1.78 2.12 2.25 2.44 2.75 3.11 3.36 3.20 2.67 2.45 2.26 2.12 2.06 1.92 1.86 1.70 1.61 1.43 1.41 1.51 1.46 1.75 1.62 1.64 1.76 1.79 1.85 1.97 1.98 1.77 1.72 2.04 2.39 2.11 2.00 1.78 1.07 1.14 1.31 1.40 1.61
1.22 1.27 1.26 1.43 1.77 2.27 2.43 2.37 2.61 2.80 2.55 2.44 2.36 2.26 2.18 1.97 2.02 1.94 1.78 1.44 1.30 1.34 1.41 1.46 1.51 1.73 1.57 1.84 2.04 1.99 2.05 2.05 1.89 1.90 2.27 2.31 2.24 1.89 1.45 1.17 1.15 1.32 1.67
0.83 1.00 0.99 1.10 1.32 1.60 1.87 2.08 2.33 2.51 2.44 2.33 2.13 1.96 1.78 1.69 1.69 1.72 1.72 1.58 1.46 1.31 1.32 1.34 1.54 1.73 1.56 1.96 1.65 1.74 1.98 2.11 1.95 1.86 1.73 1.78 1.96 2.09 1.96 1.59 1.27 1.26 1.44
0.48 0.67 0.78 0.89 0.94 1.13 1.52 1.94 2.28 2.52 2.40 2.10 1.93 1.93 1.82 1.78 1.70 1.64 1.83 1.72 1.63 1.43 1.25 1.35 1.53 1.61 1.55 1.69 1.75 2.03 1.94 1.88 1.87 1.87 1.89 1.95 1.85 1.67 1.79 1.81 1.69 1.53 1.22
0.35 0.46 0.54 0.67 0.79 0.93 1.19 1.55 1.86 2.09 2.10 1.96 1.87 1.91 1.93 1.89 1.76 1.57 1.59 1.50 1.51 1.46 1.36 1.44 1.55 1.54 1.49 1.60 1.67 1.84 1.83 1.91 1.98 1.83 1.73 1.86 1.79 1.70 1.73 1.56 1.49 1.51 1.13
0.31 0.43 0.51 0.60 0.67 0.71 0.90 1.19 1.39 1.54 1.74 1.85 1.84 1.80 1.91 1.91 1.71 1.52 1.49 1.50 1.37 1.32 1.35 1.47 1.68 1.62 1.63 1.65 1.81 1.82 1.76 1.84 1.88 1.73 1.61 1.57 1.45 1.55 1.67 1.72 1.49 1.36 1.05
0.26 0.40 0.50 0.54 0.55 0.56 0.73 0.89 1.07 1.28 1.52 1.67 1.73 1.71 1.65 1.54 1.51 1.60 1.51 1.46 1.44 1.40 1.34 1.46 1.51 1.54 1.62 1.64 1.99 1.79 1.67 1.73 1.70 1.53 1.73 1.64 1.34 1.38 1.51 1.69 1.85 1.65 1.34
0.36 0.42 0.53 0.55 0.47 0.49 0.59 0.66 0.85 1.05 1.19 1.40 1.52 1.46 1.49 1.39 1.40 1.47 1.43 1.39 1.51 1.51 1.46 1.39 1.41 1.49 1.63 1.78 1.92 1.80 1.79 1.82 1.63 1.55 1.70 1.58 1.40 1.36 1.32 1.56 1.88 2.05 1.83
0.48 0.52 0.51 0.54 0.48 0.47 0.57 0.65 0.81 0.93 1.00 1.17 1.25 1.17 1.37 1.42 1.54 1.50 1.41 1.35 1.35 1.40 1.46 1.47 1.44 1.53 1.61 1.77 1.90 1.90 1.99 2.02 1.84 1.73 1.73 1.62 1.48 1.55 1.40 1.46 1.74 1.96 2.09
0.56 0.55 0.51 0.54 0.52 0.53 0.59 0.65 0.79 0.89 0.95 1.09 1.15 1.20 1.29 1.36 1.43 1.45 1.46 1.44 1.41 1.43 1.45 1.50 1.54 1.56 1.61 1.77 1.87 1.77 1.97 2.08 2.11 1.92 1.83 1.75 1.75 1.74 1.60 1.62 1.72 1.80 2.02
0.42 0.50 0.53 0.60 0.52 0.55 0.59 0.63 0.72 0.81 0.88 1.07 1.22 1.27 1.39 1.44 1.39 1.40 1.59 1.63 1.59 1.56 1.55 1.59 1.69 1.67 1.70 1.80 1.77 1.64 1.72 1.90 2.08 2.26 2.31 2.09 2.01 1.97 1.82 1.79 1.76 1.80 1.97
0.44 0.53 0.62 0.61 0.55 0.56 0.62 0.66 0.72 0.79 0.87 1.01 1.14 1.31 1.39 1.45 1.54 1.67 1.83 1.92 1.84 1.79 1.80 1.84 1.79 1.81 1.84 1.79 1.71 1.69 1.74 1.85 1.92 2.10 2.28 2.28 2.38 2.14 2.08 1.99 1.90 1.86 1.84
0.44 0.49 0.67 0.71 0.61 0.57 0.62 0.67 0.77 0.86 0.96 1.16 1.30 1.41 1.59 1.72 1.79 1.81 1.90 1.93 1.93 1.96 1.95 1.97 1.91 1.88 1.93 1.90 1.85 1.82 1.80 1.85 1.85 1.87 1.93 2.07 2.32 2.30 2.29 2.15 2.13 2.14 2.12
0.50 0.61 0.75 0.88 0.86 0.79 0.73 0.76 0.93 1.09 1.29 1.49 1.53 1.56 1.68 1.81 1.95 2.12 2.16 2.14 2.13 2.07 2.17 2.13 2.04 2.02 2.03 1.89 1.99 2.15 2.12 2.17 2.01 1.91 1.85 1.83 2.07 2.16 2.17 1.96 2.02 2.19 2.24
0.60 0.65 0.83 1.01 1.11 1.13 1.11 1.15 1.28 1.49 1.74 1.99 2.09 2.19 2.27 2.34 2.40 2.46 2.47 2.50 2.46 2.38 2.27 2.17 2.18 2.16 1.98 2.10 2.17 2.08 2.13 2.28 2.27 2.14 2.07 1.96 1.92 1.91 1.94 1.97 2.01 2.08 2.08
0.76 0.80 0.95 1.07 1.22 1.27 1.34 1.48 1.63 1.83 2.03 2.17 2.26 2.38 2.45 2.55 2.64 2.68 2.68 2.55 2.48 2.42 2.30 2.28 2.29 2.22 2.26 2.22 1.99 1.85 1.87 1.93 2.02 2.09 2.07 1.87 1.74 1.88 1.82 1.98 2.00 1.87 1.81
0.90 0.91 1.01 1.12 1.19 1.33 1.49 1.64 1.72 1.86 2.15 2.32 2.37 2.39 2.42 2.48 2.62 2.76 2.66 2.48 2.42 2.37 2.33 2.29 2.17 2.10 2.05 2.05 1.83 1.80 1.74 1.70 1.67 1.78 1.87 1.84 1.76 1.77 1.84 1.79 1.60 1.48 1.47
0.91 0.97 1.08 1.18 1.29 1.34 1.40 1.42 1.49 1.64 1.85 2.06 2.17 2.15 2.27 2.45 2.53 2.55 2.54 2.53 2.45 2.28 2.16 2.05 2.00 1.94 1.99 2.13 1.92 1.83 1.71 1.73 1.62 1.61 1.60 1.60 1.50 1.59 1.64 1.55 1.39 1.28 1.25
0.92 1.02 1.16 1.22 1.23 1.25 1.27 1.32 1.44 1.64 1.84 2.03 2.20 2.31 2.39 2.52 2.54 2.57 2.66 2.64 2.55 2.48 2.42 2.27 2.16 2.09 2.05 2.18 1.93 1.78 1.66 1.71 1.68 1.67 1.67 1.72 1.53 1.43 1.33 1.26 1.27 1.14 1.06
0.92 1.01 1.16 1.29 1.29 1.31 1.44 1.54 1.66 1.81 1.96 2.03 2.11 2.21 2.32 2.46 2.63 2.78 2.73 2.69 2.63 2.53 2.35 2.16 2.04 1.99 1.97 1.95 1.74 1.60 1.45 1.46 1.48 1.41 1.37 1.45 1.47 1.27 1.10 1.09 1.07 1.01 1.01
0.82 0.99 1.11 1.25 1.39 1.51 1.65 1.77 1.79 1.83 1.95 2.11 2.17 2.20 2.31 2.33 2.40 2.48 2.45 2.44 2.45 2.42 2.35 2.30 2.23 2.16 2.02 1.77 1.54 1.39 1.28 1.28 1.28 1.39 1.41 1.49 1.53 1.28 1.11 0.96 0.88 0.89 0.85
0.90 0.99 1.09 1.22 1.33 1.51 1.67 1.81 1.89 1.95 2.02 2.09 2.19 2.29 2.32 2.33 2.40 2.51 2.52 2.46 2.38 2.33 2.23 2.13 1.97 1.95 1.98 1.90 1.64 1.37 1.24 1.23 1.18 1.39 1.67 1.68 1.63 1.42 1.15 1.05 1.03 0.94 0.82
1.09 1.11 1.17 1.23 1.31 1.41 1.57 1.74 1.85 1.88 2.00 2.06 2.10 2.21 2.31 2.40 2.49 2.49 2.40 2.27 2.12 2.05 1.97 1.86 1.77 1.77 1.80 1.72 1.65 1.50 1.36 1.34 1.30 1.39 1.62 1.74 1.74 1.63 1.45 1.35 1.25 1.04 0.96
1.14 1.16 1.22 1.28 1.32 1.38 1.46 1.67 1.86 1.92 1.94 2.05 2.09 2.06 2.07 2.13 2.20 2.24 2.21 2.08 1.95 1.85 1.79 1.69 1.67 1.65 1.64 1.65 1.63 1.46 1.34 1.30 1.33 1.46 1.68 1.81 1.91 1.92 1.85 1.72 1.61 1.48 1.33
1.21 1.22 1.23 1.26 1.32 1.42 1.53 1.61 1.84 2.06 2.10 2.07 1.94 1.84 1.74 1.71 1.72 1.72 1.77 1.88 1.77 1.74 1.60 1.50 1.44 1.41 1.45 1.46 1.38 1.27 1.20 1.24 1.33 1.40 1.54 1.76 1.93 2.00 2.08 2.09 1.98 1.77 1.58

GEFSMW_prec_meanprecacc_258.txt.gz
Total_Precipitation_Accumulation
1.92 2.21 2.58 2.93 3.14 3.30 3.40 3.72 3.95 3.71 3.25 2.84 2.37 2.18 2.12 1.92 1.68 1.53 1.41 1.50 1.45 1.64 1.83 1.61 1.88 1.66 1.64 1.75 1.80 1.95 1.92 1.78 1.74 2.08 2.20 1.73 1.34 1.35 1.24 1.20 1.42 1.48 1.52
1.51 1.61 1.79 2.12 2.25 2.45 2.75 3.11 3.36 3.21 2.69 2.47 2.29 2.16 2.10 1.94 1.89 1.74 1.65 1.46 1.44 1.54 1.49 1.81 1.68 1.69 1.82 1.85 1.93 2.05 2.04 1.83 1.77 2.10 2.45 2.15 2.04 1.80 1.08 1.16 1.33 1.42 1.64
1.23 1.29 1.27 1.44 1.77 2.27 2.43 2.37 2.61 2.81 2.55 2.45 2.38 2.28 2.20 2.00 2.06 1.98 1.83 1.47 1.32 1.35 1.43 1.49 1.55 1.77 1.61 1.89 2.12 2.06 2.13 2.12 1.94 1.96 2.33 2.37 2.30 1.94 1.47 1.18 1.17 1.35 1.70
0.83 1.00 1.00 1.11 1.32 1.61 1.87 2.09 2.33 2.51 2.45 2.34 2.14 1.99 1.81 1.72 1.73 1.75 1.74 1.60 1.47 1.32 1.33 1.36 1.58 1.77 1.59 2.02 1.72 1.82 2.05 2.19 2.02 1.94 1.79 1.84 2.02 2.16 2.01 1.62 1.29 1.29 1.47
0.48 0.67 0.78 0.89 0.95 1.13 1.52 1.95 2.28 2.52 2.41 2.11 1.95 1.96 1.85 1.81 1.73 1.66 1.85 1.73 1.64 1.45 1.26 1.37 1.56 1.65 1.60 1.77 1.85 2.13 2.01 1.94 1.93 1.94 1.96 2.01 1.91 1.73 1.86 1.88 1.73 1.56 1.24
0.35 0.46 0.55 0.67 0.80 0.93 1.20 1.56 1.87 2.10 2.11 1.97 1.88 1.92 1.94 1.91 1.78 1.60 1.60 1.51 1.51 1.47 1.38 1.45 1.59 1.57 1.54 1.68 1.77 1.92 1.90 1.96 2.02 1.89 1.80 1.93 1.86 1.77 1.80 1.62 1.55 1.56 1.15
0.31 0.43 0.51 0.61 0.67 0.72 0.91 1.20 1.40 1.55 1.75 1.85 1.85 1.81 1.92 1.92 1.73 1.54 1.50 1.51 1.38 1.33 1.36 1.49 1.72 1.66 1.67 1.71 1.88 1.88 1.83 1.90 1.94 1.80 1.67 1.62 1.49 1.59 1.71 1.76 1.53 1.41 1.08
0.26 0.40 0.50 0.54 0.55 0.56 0.73 0.90 1.08 1.30 1.54 1.68 1.73 1.71 1.66 1.55 1.52 1.62 1.52 1.47 1.45 1.41 1.36 1.48 1.54 1.58 1.66 1.68 2.04 1.84 1.73 1.78 1.76 1.58 1.79 1.70 1.39 1.44 1.55 1.73 1.89 1.70 1.40
0.36 0.42 0.53 0.55 0.47 0.49 0.59 0.67 0.87 1.08 1.23 1.42 1.54 1.47 1.50 1.40 1.41 1.48 1.44 1.41 1.53 1.52 1.46 1.41 1.43 1.52 1.67 1.82 1.97 1.86 1.85 1.89 1.70 1.61 1.77 1.65 1.48 1.44 1.39 1.61 1.93 2.12 1.90
0.49 0.52 0.51 0.54 0.48 0.48 0.58 0.66 0.82 0.95 1.02 1.19 1.28 1.20 1.38 1.43 1.55 1.51 1.42 1.37 1.37 1.42 1.48 1.51 1.48 1.56 1.65 1.83 1.96 1.96 2.05 2.09 1.91 1.79 1.78 1.68 1.54 1.61 1.46 1.52 1.79 2.02 2.16
0.56 0.55 0.51 0.54 0.52 0.53 0.59 0.65 0.79 0.90 0.96 1.11 1.18 1.24 1.32 1.38 1.44 1.46 1.46 1.45 1.42 1.45 1.48 1.54 1.58 1.59 1.65 1.82 1.93 1.81 2.02 2.13 2.17 1.97 1.88 1.82 1.82 1.82 1.68 1.69 1.79 1.86 2.08
0.42 0.50 0.53 0.60 0.52 0.55 0.59 0.63 0.73 0.82 0.89 1.08 1.23 1.29 1.42 1.46 1.41 1.41 1.60 1.63 1.60 1.57 1.57 1.63 1.72 1.71 1.73 1.85 1.81 1.68 1.76 1.95 2.13 2.31 2.37 2.14 2.06 2.02 1.87 1.84 1.81 1.85 2.02
0.44 0.54 0.62 0.61 0.55 0.56 0.62 0.66 0.73 0.80 0.87 1.01 1.15 1.32 1.40 1.47 1.55 1.68 1.84 1.93 1.86 1.81 1.83 1.87 1.83 1.85 1.89 1.85 1.75 1.75 1.80 1.90 1.98 2.16 2.34 2.34 2.42 2.19 2.13 2.04 1.96 1.91 1.88
0.44 0.49 0.68 0.71 0.61 0.57 0.62 0.67 0.78 0.87 0.98 1.16 1.31 1.42 1.61 1.74 1.81 1.82 1.92 1.95 1.95 1.98 1.98 2.01 1.95 1.93 1.97 1.94 1.89 1.87 1.87 1.93 1.93 1.95 2.01 2.14 2.39 2.37 2.36 2.21 2.18 2.18 2.15
0.50 0.61 0.75 0.88 0.86 0.79 0.73 0.77 0.94 1.10 1.30 1.51 1.54 1.57 1.70 1.83 1.98 2.14 2.18 2.17 2.16 2.10 2.20 2.18 2.09 2.06 2.07 1.93 2.03 2.19 2.17 2.23 2.07 1.97 1.91 1.90 2.13 2.22 2.22 2.00 2.06 2.22 2.27
0.60 0.65 0.84 1.02 1.11 1.13 1.11 1.16 1.29 1.50 1.76 2.02 2.12 2.20 2.28 2.37 2.44 2.51 2.52 2.55 2.51 2.44 2.34 2.23 2.23 2.21 2.02 2.14 2.20 2.11 2.15 2.31 2.31 2.19 2.11 2.00 1.96 1.95 1.98 2.02 2.05 2.12 2.11
0.77 0.81 0.96 1.08 1.22 1.27 1.35 1.49 1.65 1.86 2.06 2.20 2.30 2.41 2.47 2.59 2.68 2.73 2.73 2.61 2.54 2.47 2.34 2.31 2.32 2.25 2.29 2.25 2.02 1.88 1.90 1.96 2.05 2.12 2.11 1.90 1.77 1.91 1.85 2.01 2.03 1.90 1.83
0.90 0.92 1.01 1.12 1.20 1.34 1.50 1.66 1.75 1.88 2.18 2.36 2.42 2.45 2.47 2.53 2.68 2.82 2.73 2.56 2.49 2.43 2.37 2.33 2.21 2.14 2.09 2.10 1.87 1.84 1.77 1.73 1.70 1.81 1.91 1.88 1.79 1.80 1.87 1.81 1.62 1.49 1.49
0.92 0.97 1.08 1.18 1.29 1.34 1.40 1.43 1.50 1.66 1.89 2.10 2.24 2.23 2.34 2.52 2.60 2.61 2.59 2.58 2.52 2.35 2.23 2.12 2.06 2.01 2.05 2.19 1.97 1.87 1.74 1.77 1.65 1.63 1.62 1.62 1.53 1.63 1.66 1.57 1.41 1.30 1.27
0.92 1.03 1.16 1.23 1.24 1.25 1.27 1.33 1.45 1.66 1.87 2.07 2.25 2.36 2.45 2.58 2.61 2.63 2.70 2.68 2.59 2.54 2.50 2.35 2.25 2.17 2.13 2.26 2.00 1.84 1.70 1.74 1.71 1.69 1.70 1.74 1.55 1.46 1.36 1.29 1.30 1.16 1.08
0.93 1.02 1.17 1.30 1.30 1.31 1.44 1.55 1.67 1.82 1.98 2.07 2.15 2.26 2.37 2.51 2.69 2.84 2.77 2.72 2.66 2.56 2.39 2.22 2.11 2.06 2.04 2.03 1.82 1.66 1.50 1.50 1.52 1.44 1.39 1.47 1.50 1.29 1.13 1.10 1.09 1.03 1.03
0.83 1.00 1.13 1.27 1.40 1.51 1.65 1.77 1.79 1.84 1.98 2.14 2.19 2.23 2.35 2.37 2.44 2.52 2.50 2.48 2.48 2.45 2.39 2.34 2.28 2.21 2.08 1.85 1.63 1.46 1.34 1.34 1.33 1.43 1.45 1.53 1.57 1.30 1.13 0.98 0.89 0.91 0.87
0.91 1.01 1.13 1.26 1.36 1.52 1.68 1.82 1.90 1.96 2.04 2.11 2.20 2.30 2.34 2.36 2.44 2.55 2.56 2.49 2.42 2.36 2.27 2.18 2.01 1.99 2.02 1.94 1.69 1.43 1.31 1.29 1.24 1.45 1.72 1.74 1.69 1.46 1.19 1.07 1.05 0.96 0.84
1.10 1.13 1.19 1.26 1.35 1.44 1.59 1.76 1.87 1.91 2.01 2.07 2.11 2.23 2.34 2.43 2.53 2.54 2.45 2.31 2.16 2.08 2.02 1.91 1.82 1.81 1.85 1.76 1.69 1.54 1.41 1.39 1.35 1.43 1.66 1.79 1.80 1.68 1.49 1.39 1.29 1.07 0.98
1.15 1.18 1.23 1.30 1.35 1.42 1.49 1.69 1.88 1.94 1.95 2.06 2.11 2.09 2.10 2.16 2.24 2.28 2.25 2.12 2.00 1.90 1.84 1.73 1.70 1.68 1.67 1.69 1.67 1.49 1.38 1.33 1.36 1.49 1.72 1.86 1.96 1.97 1.90 1.77 1.66 1.52 1.37
1.22 1.22 1.23 1.27 1.33 1.44 1.55 1.63 1.86 2.08 2.12 2.09 1.97 1.87 1.77 1.74 1.76 1.76 1.80 1.91 1.81 1.79 1.65 1.54 1.48 1.45 1.47 1.48 1.41 1.30 1.24 1.27 1.36 1.43 1.58 1.81 2.00 2.06 2.14 2.15 2.04 1.82 1.62